Wetterdaten: Freitag, 20.10.2017
Datum Zeit Temp. Aussen Temp. o. S. +5cm Feuchte Auss BlattFeu 1 Luftdruck Regen Sonnenschein Regendauer Solar Windben Empfang
20.10.2017 00:00 15,5 C 15,0 C 13,3 C 87 % 0 lf 1007,8 hPa 0,0 l/m 0 min 0 min 0 W/m 18,8 km/h (3 Bft) 100,00 %
20.10.2017 00:02 15,5 C 15,0 C 13,3 C 87 % 0 lf 1007,6 hPa 0,0 l/m 0 min 0 min 0 W/m 12,6 km/h (3 Bft) 97,44 %
20.10.2017 00:04 15,4 C 15,6 C 13,3 C 87 % 0 lf 1007,7 hPa 0,0 l/m 0 min 0 min 0 W/m 12,6 km/h (3 Bft) 97,87 %
20.10.2017 00:08 15,4 C 15,6 C 13,3 C 87 % 0 lf 1007,7 hPa 0,0 l/m 0 min 0 min 0 W/m 14,6 km/h (3 Bft) 96,77 %
20.10.2017 00:10 15,4 C 15,0 C 13,3 C 87 % 0 lf 1007,7 hPa 0,0 l/m 0 min 0 min 0 W/m 14,6 km/h (3 Bft) 100,00 %
20.10.2017 00:12 15,4 C 15,6 C 13,3 C 87 % 0 lf 1007,6 hPa 0,0 l/m 0 min 0 min 0 W/m 20,9 km/h (4 Bft) 97,87 %
20.10.2017 00:14 15,4 C 15,0 C 13,3 C 87 % 0 lf 1007,6 hPa 0,0 l/m 0 min 0 min 0 W/m 16,7 km/h (3 Bft) 100,00 %
20.10.2017 00:16 15,4 C 15,0 C 13,3 C 87 % 0 lf 1007,6 hPa 0,0 l/m 0 min 0 min 0 W/m 18,8 km/h (3 Bft) 100,00 %
20.10.2017 00:18 15,4 C 15,6 C 13,3 C 87 % 0 lf 1007,6 hPa 0,0 l/m 0 min 0 min 0 W/m 12,6 km/h (3 Bft) 100,00 %
20.10.2017 00:20 15,4 C 15,6 C 13,9 C 87 % 0 lf 1007,6 hPa 0,0 l/m 0 min 0 min 0 W/m 10,5 km/h (2 Bft) 100,00 %
20.10.2017 00:22 15,4 C 15,6 C 13,9 C 87 % 0 lf 1007,6 hPa 0,0 l/m 0 min 0 min 0 W/m 12,6 km/h (3 Bft) 100,00 %
20.10.2017 00:24 15,4 C 15,6 C 13,9 C 87 % 0 lf 1007,6 hPa 0,0 l/m 0 min 0 min 0 W/m 12,6 km/h (3 Bft) 100,00 %
20.10.2017 00:26 15,4 C 15,6 C 13,9 C 87 % 0 lf 1007,6 hPa 0,0 l/m 0 min 0 min 0 W/m 10,5 km/h (2 Bft) 100,00 %
20.10.2017 00:28 15,5 C 15,6 C 13,9 C 86 % 0 lf 1007,6 hPa 0,0 l/m 0 min 0 min 0 W/m 10,5 km/h (2 Bft) 100,00 %
20.10.2017 00:30 15,5 C 15,6 C 13,9 C 86 % 0 lf 1007,6 hPa 0,0 l/m 0 min 0 min 0 W/m 16,7 km/h (3 Bft) 100,00 %
20.10.2017 00:32 15,6 C 15,6 C 13,9 C 86 % 0 lf 1007,6 hPa 0,0 l/m 0 min 0 min 0 W/m 10,5 km/h (2 Bft) 100,00 %
20.10.2017 00:34 15,6 C 16,1 C 14,4 C 86 % 0 lf 1007,6 hPa 0,0 l/m 0 min 0 min 0 W/m 16,7 km/h (3 Bft) 100,00 %
20.10.2017 00:36 15,6 C 16,1 C 14,4 C 85 % 0 lf 1007,7 hPa 0,0 l/m 0 min 0 min 0 W/m 12,6 km/h (3 Bft) 97,87 %
20.10.2017 00:38 15,6 C 16,1 C 14,4 C 85 % 0 lf 1007,7 hPa 0,0 l/m 0 min 0 min 0 W/m 12,6 km/h (3 Bft) 100,00 %
20.10.2017 00:40 15,6 C 16,1 C 14,4 C 85 % 0 lf 1007,8 hPa 0,0 l/m 0 min 0 min 0 W/m 14,6 km/h (3 Bft) 100,00 %
20.10.2017 00:42 15,7 C 16,1 C 14,4 C 85 % 0 lf 1007,8 hPa 0,0 l/m 0 min 0 min 0 W/m 18,8 km/h (3 Bft) 97,83 %
20.10.2017 00:44 15,7 C 16,1 C 14,4 C 85 % 0 lf 1007,8 hPa 0,0 l/m 0 min 0 min 0 W/m 16,7 km/h (3 Bft) 100,00 %
20.10.2017 00:46 15,8 C 16,1 C 14,4 C 84 % 0 lf 1007,9 hPa 0,0 l/m 0 min 0 min 0 W/m 14,6 km/h (3 Bft) 97,87 %
20.10.2017 00:48 15,8 C 16,1 C 14,4 C 84 % 0 lf 1007,8 hPa 0,0 l/m 0 min 0 min 0 W/m 18,8 km/h (3 Bft) 100,00 %
20.10.2017 00:50 15,8 C 16,1 C 14,4 C 84 % 0 lf 1007,7 hPa 0,0 l/m 0 min 0 min 0 W/m 18,8 km/h (3 Bft) 95,74 %
20.10.2017 00:52 15,9 C 16,1 C 14,4 C 83 % 0 lf 1007,6 hPa 0,0 l/m 0 min 0 min 0 W/m 18,8 km/h (3 Bft) 97,83 %
20.10.2017 00:54 15,9 C 16,1 C 15,0 C 83 % 0 lf 1007,7 hPa 0,0 l/m 0 min 0 min 0 W/m 25,1 km/h (4 Bft) 97,87 %
20.10.2017 00:56 16,0 C 16,1 C 15,0 C 83 % 0 lf 1007,7 hPa 0,0 l/m 0 min 0 min 0 W/m 16,7 km/h (3 Bft) 93,62 %
20.10.2017 00:58 16,0 C 16,1 C 14,4 C 83 % 0 lf 1007,8 hPa 0,0 l/m 0 min 0 min 0 W/m 20,9 km/h (4 Bft) 97,87 %
20.10.2017 01:00 16,1 C 16,1 C 14,4 C 82 % 0 lf 1007,9 hPa 0,0 l/m 0 min 0 min 0 W/m 14,6 km/h (3 Bft) 91,49 %
20.10.2017 01:02 16,1 C 16,1 C 14,4 C 82 % 0 lf 1007,9 hPa 0,0 l/m 0 min 0 min 0 W/m 14,6 km/h (3 Bft) 93,62 %
20.10.2017 01:04 16,2 C 16,1 C 15,0 C 82 % 0 lf 1007,9 hPa 0,0 l/m 0 min 0 min 0 W/m 14,6 km/h (3 Bft) 93,48 %
20.10.2017 01:06 16,2 C 16,1 C 14,4 C 82 % 0 lf 1007,9 hPa 0,0 l/m 0 min 0 min 0 W/m 18,8 km/h (3 Bft) 93,62 %
20.10.2017 01:08 16,2 C 16,1 C 14,4 C 82 % 0 lf 1007,7 hPa 0,0 l/m 0 min 0 min 0 W/m 14,6 km/h (3 Bft) 93,62 %
20.10.2017 01:10 16,2 C 16,1 C 14,4 C 82 % 0 lf 1007,7 hPa 0,0 l/m 0 min 0 min 0 W/m 14,6 km/h (3 Bft) 93,62 %
20.10.2017 01:12 16,2 C 16,1 C 14,4 C 81 % 0 lf 1007,7 hPa 0,0 l/m 0 min 0 min 0 W/m 14,6 km/h (3 Bft) 93,62 %
20.10.2017 01:14 16,3 C 16,1 C 14,4 C 81 % 0 lf 1007,7 hPa 0,0 l/m 0 min 0 min 0 W/m 12,6 km/h (3 Bft) 93,62 %
20.10.2017 01:16 16,3 C 16,1 C 14,4 C 81 % 0 lf 1007,6 hPa 0,0 l/m 0 min 0 min 0 W/m 14,6 km/h (3 Bft) 93,62 %
20.10.2017 01:18 16,3 C 16,1 C 14,4 C 81 % 0 lf 1007,6 hPa 0,0 l/m 0 min 0 min 0 W/m 18,8 km/h (3 Bft) 93,48 %
20.10.2017 01:20 16,3 C 16,1 C 14,4 C 80 % 0 lf 1007,6 hPa 0,0 l/m 0 min 0 min 0 W/m 12,6 km/h (3 Bft) 90,57 %
20.10.2017 01:22 16,3 C 16,1 C 14,4 C 80 % 0 lf 1007,7 hPa 0,0 l/m 0 min 0 min 0 W/m 12,6 km/h (3 Bft) 95,12 %
20.10.2017 01:24 16,3 C 16,1 C 14,4 C 80 % 0 lf 1007,7 hPa 0,0 l/m 0 min 0 min 0 W/m 16,7 km/h (3 Bft) 93,62 %
20.10.2017 01:26 16,3 C 16,1 C 14,4 C 80 % 0 lf 1007,7 hPa 0,0 l/m 0 min 0 min 0 W/m 12,6 km/h (3 Bft) 89,36 %
20.10.2017 01:28 16,3 C 16,1 C 14,4 C 80 % 0 lf 1007,9 hPa 0,0 l/m 0 min 0 min 0 W/m 12,6 km/h (3 Bft) 93,62 %
20.10.2017 01:30 16,3 C 16,1 C 14,4 C 80 % 0 lf 1008,0 hPa 0,0 l/m 0 min 0 min 0 W/m 14,6 km/h (3 Bft) 91,30 %
20.10.2017 01:32 16,3 C 15,6 C 13,9 C 80 % 4 lf 1008,0 hPa 0,0 l/m 0 min 2 min 0 W/m 14,6 km/h (3 Bft) 95,74 %
20.10.2017 01:34 16,4 C 15,0 C 13,3 C 81 % 0 lf 1008,1 hPa 0,0 l/m 0 min 2 min 0 W/m 14,6 km/h (3 Bft) 91,49 %
20.10.2017 01:36 16,4 C 15,0 C 12,8 C 81 % 0 lf 1008,1 hPa 0,0 l/m 0 min 2 min 0 W/m 18,8 km/h (3 Bft) 95,74 %
20.10.2017 01:38 16,4 C 14,4 C 12,8 C 81 % 0 lf 1008,2 hPa 0,0 l/m 0 min 2 min 0 W/m 14,6 km/h (3 Bft) 93,62 %
20.10.2017 01:40 16,3 C 14,4 C 12,8 C 81 % 0 lf 1008,2 hPa 0,0 l/m 0 min 2 min 0 W/m 16,7 km/h (3 Bft) 95,65 %
20.10.2017 01:42 16,3 C 14,4 C 12,8 C 81 % 0 lf 1008,3 hPa 0,0 l/m 0 min 2 min 0 W/m 14,6 km/h (3 Bft) 95,74 %
20.10.2017 01:44 16,3 C 15,0 C 12,8 C 82 % 0 lf 1008,3 hPa 0,0 l/m 0 min 0 min 0 W/m 14,6 km/h (3 Bft) 95,74 %
20.10.2017 01:46 16,3 C 15,0 C 12,8 C 82 % 2 lf 1008,3 hPa 0,0 l/m 0 min 2 min 0 W/m 10,5 km/h (2 Bft) 97,87 %
20.10.2017 01:48 16,3 C 13,9 C 12,8 C 82 % 12 lf 1008,1 hPa 0,0 l/m 0 min 2 min 0 W/m 8,4 km/h (2 Bft) 95,74 %
20.10.2017 01:50 16,3 C 13,9 C 12,2 C 82 % 15 lf 1008,0 hPa 0,2 l/m 0 min 2 min 0 W/m 10,5 km/h (2 Bft) 97,87 %
20.10.2017 01:52 16,3 C 13,9 C 12,2 C 82 % 14 lf 1008,1 hPa 0,0 l/m 0 min 2 min 0 W/m 10,5 km/h (2 Bft) 95,65 %
20.10.2017 01:54 16,2 C 13,9 C 12,2 C 83 % 13 lf 1008,1 hPa 0,0 l/m 0 min 0 min 0 W/m 6,3 km/h (2 Bft) 97,87 %
20.10.2017 01:56 16,2 C 13,9 C 12,2 C 83 % 10 lf 1008,1 hPa 0,0 l/m 0 min 0 min 0 W/m 10,5 km/h (2 Bft) 91,49 %
20.10.2017 01:58 16,2 C 13,9 C 12,2 C 83 % 4 lf 1008,3 hPa 0,0 l/m 0 min 0 min 0 W/m 10,5 km/h (2 Bft) 100,00 %
20.10.2017 02:00 16,2 C 13,9 C 12,2 C 83 % 2 lf 1008,3 hPa 0,0 l/m 0 min 0 min 0 W/m 8,4 km/h (2 Bft) 93,62 %
20.10.2017 02:02 16,1 C 13,9 C 12,2 C 83 % 0 lf 1008,2 hPa 0,0 l/m 0 min 0 min 0 W/m 6,3 km/h (2 Bft) 93,62 %
20.10.2017 02:04 16,1 C 13,9 C 12,2 C 83 % 0 lf 1008,3 hPa 0,0 l/m 0 min 0 min 0 W/m 8,4 km/h (2 Bft) 97,83 %
20.10.2017 02:06 16,1 C 13,9 C 12,2 C 83 % 0 lf 1008,3 hPa 0,0 l/m 0 min 0 min 0 W/m 10,5 km/h (2 Bft) 93,62 %
20.10.2017 02:08 16,0 C 14,4 C 12,2 C 84 % 0 lf 1008,4 hPa 0,0 l/m 0 min 0 min 0 W/m 10,5 km/h (2 Bft) 97,87 %
20.10.2017 02:10 15,9 C 14,4 C 12,2 C 84 % 0 lf 1008,5 hPa 0,0 l/m 0 min 0 min 0 W/m 10,5 km/h (2 Bft) 95,74 %
20.10.2017 02:12 15,9 C 14,4 C 12,2 C 84 % 0 lf 1008,4 hPa 0,0 l/m 0 min 0 min 0 W/m 12,6 km/h (3 Bft) 91,49 %
20.10.2017 02:14 15,8 C 14,4 C 12,2 C 83 % 0 lf 1008,4 hPa 0,0 l/m 0 min 0 min 0 W/m 8,4 km/h (2 Bft) 97,87 %
20.10.2017 02:16 15,8 C 14,4 C 12,2 C 84 % 0 lf 1008,4 hPa 0,0 l/m 0 min 0 min 0 W/m 10,5 km/h (2 Bft) 95,65 %
20.10.2017 02:18 15,8 C 15,0 C 12,2 C 84 % 2 lf 1008,5 hPa 0,0 l/m 0 min 0 min 0 W/m 10,5 km/h (2 Bft) 93,62 %
20.10.2017 02:20 15,7 C 14,4 C 12,2 C 84 % 3 lf 1008,7 hPa 0,0 l/m 0 min 2 min 0 W/m 10,5 km/h (2 Bft) 95,74 %
20.10.2017 02:22 15,7 C 14,4 C 12,2 C 84 % 3 lf 1008,7 hPa 0,0 l/m 0 min 2 min 0 W/m 10,5 km/h (2 Bft) 95,45 %
20.10.2017 02:24 15,7 C 14,4 C 12,2 C 84 % 1 lf 1008,7 hPa 0,0 l/m 0 min 2 min 0 W/m 8,4 km/h (2 Bft) 93,62 %
20.10.2017 02:26 15,7 C 14,4 C 12,2 C 84 % 0 lf 1008,6 hPa 0,0 l/m 0 min 2 min 0 W/m 6,3 km/h (2 Bft) 97,83 %
20.10.2017 02:28 15,7 C 14,4 C 12,2 C 84 % 6 lf 1008,6 hPa 0,0 l/m 0 min 2 min 0 W/m 6,3 km/h (2 Bft) 95,74 %
20.10.2017 02:30 15,6 C 14,4 C 12,2 C 85 % 4 lf 1008,6 hPa 0,0 l/m 0 min 2 min 0 W/m 10,5 km/h (2 Bft) 97,87 %
20.10.2017 02:32 15,6 C 14,4 C 12,2 C 84 % 1 lf 1008,6 hPa 0,0 l/m 0 min 2 min 0 W/m 10,5 km/h (2 Bft) 95,74 %
20.10.2017 02:34 15,6 C 13,9 C 12,2 C 84 % 0 lf 1008,5 hPa 0,0 l/m 0 min 2 min 0 W/m 10,5 km/h (2 Bft) 95,74 %
20.10.2017 02:36 15,6 C 13,9 C 12,2 C 84 % 3 lf 1008,6 hPa 0,0 l/m 0 min 2 min 0 W/m 10,5 km/h (2 Bft) 95,65 %
20.10.2017 02:38 15,6 C 13,3 C 12,2 C 85 % 4 lf 1008,5 hPa 0,2 l/m 0 min 2 min 0 W/m 8,4 km/h (2 Bft) 95,74 %
20.10.2017 02:40 15,5 C 13,3 C 12,2 C 85 % 8 lf 1008,6 hPa 0,0 l/m 0 min 2 min 0 W/m 8,4 km/h (2 Bft) 95,74 %
20.10.2017 02:42 15,5 C 12,8 C 12,2 C 85 % 14 lf 1008,5 hPa 0,0 l/m 0 min 2 min 0 W/m 8,4 km/h (2 Bft) 97,87 %
20.10.2017 02:44 15,5 C 12,8 C 12,2 C 85 % 14 lf 1008,4 hPa 0,0 l/m 0 min 2 min 0 W/m 8,4 km/h (2 Bft) 97,87 %
20.10.2017 02:46 15,5 C 12,8 C 12,2 C 85 % 14 lf 1008,3 hPa 0,0 l/m 0 min 0 min 0 W/m 10,5 km/h (2 Bft) 91,49 %
20.10.2017 02:48 15,5 C 12,8 C 12,2 C 85 % 13 lf 1008,3 hPa 0,0 l/m 0 min 0 min 0 W/m 10,5 km/h (2 Bft) 95,65 %
20.10.2017 02:50 15,4 C 13,3 C 12,2 C 86 % 12 lf 1008,3 hPa 0,0 l/m 0 min 0 min 0 W/m 10,5 km/h (2 Bft) 100,00 %
20.10.2017 02:52 15,4 C 13,3 C 12,2 C 86 % 11 lf 1008,3 hPa 0,0 l/m 0 min 0 min 0 W/m 10,5 km/h (2 Bft) 100,00 %
20.10.2017 02:54 15,4 C 13,3 C 12,2 C 86 % 9 lf 1008,2 hPa 0,0 l/m 0 min 0 min 0 W/m 8,4 km/h (2 Bft) 100,00 %
20.10.2017 02:56 15,4 C 13,3 C 12,2 C 86 % 5 lf 1008,2 hPa 0,0 l/m 0 min 0 min 0 W/m 8,4 km/h (2 Bft) 93,62 %
20.10.2017 02:58 15,3 C 13,3 C 12,2 C 86 % 3 lf 1008,1 hPa 0,0 l/m 0 min 2 min 0 W/m 14,6 km/h (3 Bft) 95,65 %
20.10.2017 03:00 15,3 C 12,8 C 12,2 C 86 % 2 lf 1008,2 hPa 0,0 l/m 0 min 2 min 0 W/m 8,4 km/h (2 Bft) 97,87 %
20.10.2017 03:02 15,3 C 12,8 C 12,2 C 86 % 3 lf 1008,3 hPa 0,0 l/m 0 min 2 min 0 W/m 10,5 km/h (2 Bft) 95,74 %
20.10.2017 03:04 15,2 C 12,8 C 12,2 C 87 % 1 lf 1008,3 hPa 0,0 l/m 0 min 2 min 0 W/m 10,5 km/h (2 Bft) 97,87 %
20.10.2017 03:06 15,2 C 12,8 C 12,2 C 87 % 8 lf 1008,3 hPa 0,2 l/m 0 min 2 min 0 W/m 10,5 km/h (2 Bft) 95,74 %
20.10.2017 03:08 15,2 C 12,8 C 12,2 C 87 % 13 lf 1008,1 hPa 0,0 l/m 0 min 2 min 0 W/m 12,6 km/h (3 Bft) 97,87 %
20.10.2017 03:10 15,1 C 12,8 C 12,2 C 87 % 14 lf 1008,0 hPa 0,0 l/m 0 min 2 min 0 W/m 10,5 km/h (2 Bft) 95,65 %
20.10.2017 03:12 15,1 C 12,8 C 12,2 C 87 % 14 lf 1008,0 hPa 0,0 l/m 0 min 2 min 0 W/m 8,4 km/h (2 Bft) 97,87 %
20.10.2017 03:14 15,1 C 12,8 C 12,2 C 87 % 14 lf 1007,9 hPa 0,0 l/m 0 min 0 min 0 W/m 8,4 km/h (2 Bft) 95,74 %
20.10.2017 03:16 15,1 C 12,8 C 12,2 C 87 % 13 lf 1007,9 hPa 0,0 l/m 0 min 0 min 0 W/m 6,3 km/h (2 Bft) 95,74 %
20.10.2017 03:18 15,0 C 12,8 C 12,2 C 87 % 13 lf 1007,6 hPa 0,0 l/m 0 min 2 min 0 W/m 8,4 km/h (2 Bft) 95,74 %
20.10.2017 03:20 15,0 C 12,8 C 12,2 C 87 % 12 lf 1007,6 hPa 0,0 l/m 0 min 2 min 0 W/m 6,3 km/h (2 Bft) 97,87 %
20.10.2017 03:22 14,9 C 12,8 C 12,2 C 88 % 12 lf 1007,6 hPa 0,0 l/m 0 min 0 min 0 W/m 4,2 km/h (1 Bft) 95,74 %
20.10.2017 03:24 14,9 C 12,8 C 12,2 C 88 % 10 lf 1007,6 hPa 0,0 l/m 0 min 2 min 0 W/m 6,3 km/h (2 Bft) 95,74 %
20.10.2017 03:26 14,9 C 12,8 C 12,2 C 88 % 8 lf 1007,9 hPa 0,0 l/m 0 min 2 min 0 W/m 8,4 km/h (2 Bft) 97,83 %
20.10.2017 03:28 14,9 C 12,8 C 12,2 C 88 % 4 lf 1008,0 hPa 0,2 l/m 0 min 2 min 0 W/m 14,6 km/h (3 Bft) 100,00 %
20.10.2017 03:30 14,8 C 12,8 C 11,7 C 89 % 11 lf 1008,0 hPa 0,2 l/m 0 min 2 min 0 W/m 18,8 km/h (3 Bft) 100,00 %
20.10.2017 03:32 14,8 C 12,8 C 11,7 C 89 % 9 lf 1008,0 hPa 0,0 l/m 0 min 2 min 0 W/m 18,8 km/h (3 Bft) 100,00 %
20.10.2017 03:34 14,7 C 12,8 C 11,7 C 89 % 9 lf 1008,0 hPa 0,0 l/m 0 min 2 min 0 W/m 16,7 km/h (3 Bft) 100,00 %
20.10.2017 03:36 14,7 C 12,8 C 11,7 C 89 % 8 lf 1008,0 hPa 0,2 l/m 0 min 2 min 0 W/m 20,9 km/h (4 Bft) 97,87 %
20.10.2017 03:38 14,7 C 12,8 C 11,7 C 89 % 4 lf 1008,0 hPa 0,0 l/m 0 min 0 min 0 W/m 14,6 km/h (3 Bft) 100,00 %
20.10.2017 03:40 14,6 C 12,8 C 11,7 C 90 % 2 lf 1008,0 hPa 0,0 l/m 0 min 0 min 0 W/m 12,6 km/h (3 Bft) 100,00 %
20.10.2017 03:42 14,6 C 12,8 C 11,7 C 90 % 1 lf 1007,8 hPa 0,0 l/m 0 min 0 min 0 W/m 12,6 km/h (3 Bft) 100,00 %
20.10.2017 03:44 14,5 C 12,8 C 11,7 C 90 % 0 lf 1007,8 hPa 0,0 l/m 0 min 0 min 0 W/m 10,5 km/h (2 Bft) 100,00 %
20.10.2017 03:46 14,5 C 12,8 C 11,7 C 90 % 0 lf 1007,8 hPa 0,0 l/m 0 min 0 min 0 W/m 8,4 km/h (2 Bft) 97,87 %
20.10.2017 03:48 14,4 C 12,8 C 11,7 C 90 % 0 lf 1007,7 hPa 0,0 l/m 0 min 0 min 0 W/m 8,4 km/h (2 Bft) 100,00 %
20.10.2017 03:50 14,4 C 12,8 C 12,2 C 90 % 0 lf 1007,7 hPa 0,0 l/m 0 min 0 min 0 W/m 8,4 km/h (2 Bft) 95,74 %
20.10.2017 03:52 14,4 C 12,8 C 12,2 C 90 % 3 lf 1007,7 hPa 0,0 l/m 0 min 2 min 0 W/m 8,4 km/h (2 Bft) 95,74 %
20.10.2017 03:54 14,4 C 12,8 C 12,2 C 91 % 2 lf 1007,9 hPa 0,0 l/m 0 min 2 min 0 W/m 6,3 km/h (2 Bft) 97,87 %
20.10.2017 03:56 14,3 C 12,8 C 11,7 C 91 % 2 lf 1007,8 hPa 0,0 l/m 0 min 2 min 0 W/m 8,4 km/h (2 Bft) 100,00 %
20.10.2017 03:58 14,3 C 12,8 C 11,7 C 91 % 6 lf 1007,5 hPa 0,2 l/m 0 min 2 min 0 W/m 6,3 km/h (2 Bft) 95,74 %
20.10.2017 04:00 14,3 C 12,8 C 11,7 C 91 % 7 lf 1007,6 hPa 0,0 l/m 0 min 2 min 0 W/m 6,3 km/h (2 Bft) 97,83 %
20.10.2017 04:05 14,3 C 12,8 C 12,2 C 91 % 4 lf 1008,0 hPa 0,0 l/m 0 min 5 min 0 W/m 10,5 km/h (2 Bft) 81,82 %
20.10.2017 04:06 14,2 C 12,8 C 11,7 C 91 % 4 lf 1008,0 hPa 0,0 l/m 0 min 1 min 0 W/m 8,4 km/h (2 Bft) 100,00 %
20.10.2017 04:08 14,2 C 12,8 C 11,7 C 91 % 15 lf 1007,8 hPa 0,0 l/m 0 min 2 min 0 W/m 8,4 km/h (2 Bft) 97,87 %
20.10.2017 04:10 14,2 C 12,8 C 11,7 C 91 % 15 lf 1007,7 hPa 0,0 l/m 0 min 2 min 0 W/m 10,5 km/h (2 Bft) 97,87 %
20.10.2017 04:12 14,2 C 12,8 C 11,7 C 91 % 15 lf 1007,7 hPa 0,0 l/m 0 min 0 min 0 W/m 10,5 km/h (2 Bft) 97,83 %
20.10.2017 04:14 14,2 C 12,8 C 11,7 C 91 % 15 lf 1007,6 hPa 0,2 l/m 0 min 0 min 0 W/m 14,6 km/h (3 Bft) 95,74 %
20.10.2017 04:16 14,2 C 12,8 C 11,7 C 92 % 14 lf 1007,5 hPa 0,0 l/m 0 min 0 min 0 W/m 10,5 km/h (2 Bft) 97,87 %
20.10.2017 04:18 14,2 C 12,8 C 11,7 C 92 % 14 lf 1007,5 hPa 0,0 l/m 0 min 0 min 0 W/m 10,5 km/h (2 Bft) 95,74 %
20.10.2017 04:20 14,2 C 12,8 C 11,7 C 92 % 14 lf 1007,5 hPa 0,0 l/m 0 min 0 min 0 W/m 8,4 km/h (2 Bft) 95,74 %
20.10.2017 04:22 14,2 C 12,8 C 11,7 C 92 % 13 lf 1007,5 hPa 0,0 l/m 0 min 0 min 0 W/m 10,5 km/h (2 Bft) 97,87 %
20.10.2017 04:24 14,2 C 12,8 C 11,7 C 92 % 13 lf 1007,5 hPa 0,0 l/m 0 min 0 min 0 W/m 10,5 km/h (2 Bft) 97,83 %
20.10.2017 04:26 14,2 C 12,8 C 11,7 C 92 % 12 lf 1007,5 hPa 0,0 l/m 0 min 0 min 0 W/m 12,6 km/h (3 Bft) 97,87 %
20.10.2017 04:28 14,2 C 12,8 C 11,7 C 92 % 11 lf 1007,5 hPa 0,0 l/m 0 min 2 min 0 W/m 8,4 km/h (2 Bft) 95,74 %
20.10.2017 04:30 14,2 C 12,8 C 11,7 C 92 % 10 lf 1007,5 hPa 0,0 l/m 0 min 2 min 0 W/m 8,4 km/h (2 Bft) 97,87 %
20.10.2017 04:32 14,1 C 12,8 C 11,7 C 92 % 10 lf 1007,4 hPa 0,0 l/m 0 min 2 min 0 W/m 10,5 km/h (2 Bft) 95,74 %
20.10.2017 04:34 14,1 C 12,8 C 11,7 C 92 % 13 lf 1007,4 hPa 0,0 l/m 0 min 2 min 0 W/m 8,4 km/h (2 Bft) 95,74 %
20.10.2017 04:36 14,1 C 12,8 C 11,7 C 92 % 14 lf 1007,4 hPa 0,0 l/m 0 min 2 min 0 W/m 4,2 km/h (1 Bft) 93,48 %
20.10.2017 04:38 14,1 C 12,8 C 11,7 C 92 % 13 lf 1007,4 hPa 0,0 l/m 0 min 2 min 0 W/m 4,2 km/h (1 Bft) 97,87 %
20.10.2017 04:40 14,1 C 12,8 C 11,7 C 92 % 13 lf 1007,4 hPa 0,0 l/m 0 min 0 min 0 W/m 8,4 km/h (2 Bft) 97,87 %
20.10.2017 04:42 14,0 C 12,8 C 11,7 C 92 % 13 lf 1007,3 hPa 0,0 l/m 0 min 0 min 0 W/m 8,4 km/h (2 Bft) 95,74 %
20.10.2017 04:44 14,0 C 12,8 C 11,7 C 92 % 12 lf 1007,2 hPa 0,0 l/m 0 min 0 min 0 W/m 6,3 km/h (2 Bft) 97,87 %
20.10.2017 04:46 14,0 C 12,8 C 11,7 C 92 % 12 lf 1007,3 hPa 0,0 l/m 0 min 0 min 0 W/m 6,3 km/h (2 Bft) 93,48 %
20.10.2017 04:48 13,9 C 12,8 C 11,7 C 92 % 10 lf 1007,4 hPa 0,0 l/m 0 min 0 min 0 W/m 8,4 km/h (2 Bft) 93,62 %
20.10.2017 04:50 13,9 C 12,8 C 11,7 C 93 % 9 lf 1007,3 hPa 0,0 l/m 0 min 2 min 0 W/m 10,5 km/h (2 Bft) 97,87 %
20.10.2017 04:52 13,9 C 12,8 C 11,7 C 93 % 8 lf 1007,4 hPa 0,0 l/m 0 min 2 min 0 W/m 8,4 km/h (2 Bft) 95,74 %
20.10.2017 04:54 13,9 C 12,8 C 11,7 C 93 % 6 lf 1007,3 hPa 0,0 l/m 0 min 2 min 0 W/m 8,4 km/h (2 Bft) 95,74 %
20.10.2017 04:56 13,9 C 12,8 C 11,7 C 93 % 4 lf 1007,2 hPa 0,0 l/m 0 min 2 min 0 W/m 6,3 km/h (2 Bft) 91,49 %
20.10.2017 04:58 13,9 C 12,8 C 11,7 C 93 % 3 lf 1007,2 hPa 0,0 l/m 0 min 0 min 0 W/m 8,4 km/h (2 Bft) 91,49 %
20.10.2017 05:00 13,9 C 12,8 C 11,7 C 93 % 3 lf 1007,2 hPa 0,0 l/m 0 min 0 min 0 W/m 6,3 km/h (2 Bft) 95,65 %
20.10.2017 05:02 13,9 C 12,8 C 11,7 C 93 % 2 lf 1007,2 hPa 0,0 l/m 0 min 0 min 0 W/m 6,3 km/h (2 Bft) 93,62 %
20.10.2017 05:04 13,8 C 12,8 C 11,7 C 93 % 1 lf 1007,2 hPa 0,0 l/m 0 min 0 min 0 W/m 6,3 km/h (2 Bft) 91,49 %
20.10.2017 05:06 13,8 C 12,8 C 11,7 C 93 % 1 lf 1007,1 hPa 0,0 l/m 0 min 0 min 0 W/m 8,4 km/h (2 Bft) 93,62 %
20.10.2017 05:08 13,8 C 12,8 C 11,7 C 93 % 0 lf 1007,0 hPa 0,0 l/m 0 min 0 min 0 W/m 10,5 km/h (2 Bft) 91,49 %
20.10.2017 05:10 13,8 C 12,8 C 11,7 C 93 % 0 lf 1006,9 hPa 0,0 l/m 0 min 0 min 0 W/m 6,3 km/h (2 Bft) 93,62 %
20.10.2017 05:12 13,8 C 12,8 C 11,7 C 93 % 0 lf 1006,9 hPa 0,0 l/m 0 min 0 min 0 W/m 8,4 km/h (2 Bft) 91,30 %
20.10.2017 05:14 13,8 C 12,8 C 11,7 C 93 % 0 lf 1006,8 hPa 0,0 l/m 0 min 0 min 0 W/m 8,4 km/h (2 Bft) 93,62 %
20.10.2017 05:16 13,8 C 12,8 C 11,7 C 93 % 0 lf 1006,7 hPa 0,0 l/m 0 min 0 min 0 W/m 10,5 km/h (2 Bft) 95,74 %
20.10.2017 05:18 13,7 C 12,8 C 11,7 C 93 % 0 lf 1006,6 hPa 0,0 l/m 0 min 0 min 0 W/m 10,5 km/h (2 Bft) 95,74 %
20.10.2017 05:20 13,7 C 12,8 C 11,7 C 93 % 0 lf 1006,6 hPa 0,0 l/m 0 min 0 min 0 W/m 6,3 km/h (2 Bft) 94,23 %
20.10.2017 05:22 13,7 C 12,8 C 11,7 C 93 % 0 lf 1006,7 hPa 0,0 l/m 0 min 0 min 0 W/m 6,3 km/h (2 Bft) 95,12 %
20.10.2017 05:24 13,7 C 12,8 C 11,7 C 93 % 0 lf 1006,8 hPa 0,0 l/m 0 min 0 min 0 W/m 6,3 km/h (2 Bft) 95,74 %
20.10.2017 05:26 13,7 C 12,8 C 11,7 C 93 % 0 lf 1006,9 hPa 0,0 l/m 0 min 0 min 0 W/m 6,3 km/h (2 Bft) 95,74 %
20.10.2017 05:28 13,7 C 12,8 C 11,7 C 93 % 0 lf 1007,0 hPa 0,0 l/m 0 min 0 min 0 W/m 8,4 km/h (2 Bft) 93,62 %
20.10.2017 05:30 13,7 C 12,8 C 11,7 C 93 % 0 lf 1007,0 hPa 0,0 l/m 0 min 0 min 0 W/m 6,3 km/h (2 Bft) 93,62 %
20.10.2017 05:32 13,7 C 12,8 C 11,7 C 93 % 0 lf 1007,2 hPa 0,0 l/m 0 min 0 min 0 W/m 10,5 km/h (2 Bft) 93,62 %
20.10.2017 05:34 13,7 C 12,8 C 11,7 C 93 % 0 lf 1007,2 hPa 0,0 l/m 0 min 0 min 0 W/m 10,5 km/h (2 Bft) 95,65 %
20.10.2017 05:35 13,7 C 12,8 C 11,7 C 93 % 1 lf 1007,2 hPa 0,0 l/m 0 min 0 min 0 W/m 10,5 km/h (2 Bft) 94,74 %
20.10.2017 05:40 13,6 C 12,8 C 11,7 C 93 % 1 lf 1007,1 hPa 0,0 l/m 0 min 0 min 0 W/m 6,3 km/h (2 Bft) 91,30 %
20.10.2017 05:42 13,6 C 12,8 C 11,7 C 93 % 3 lf 1007,2 hPa 0,0 l/m 0 min 2 min 0 W/m 10,5 km/h (2 Bft) 95,74 %
20.10.2017 05:44 13,6 C 12,2 C 11,7 C 93 % 5 lf 1007,1 hPa 0,2 l/m 0 min 2 min 0 W/m 10,5 km/h (2 Bft) 93,62 %
20.10.2017 05:46 13,6 C 12,2 C 11,7 C 93 % 15 lf 1007,2 hPa 0,0 l/m 0 min 2 min 0 W/m 10,5 km/h (2 Bft) 95,74 %
20.10.2017 05:48 13,6 C 12,2 C 11,7 C 94 % 15 lf 1007,2 hPa 0,2 l/m 0 min 2 min 0 W/m 18,8 km/h (3 Bft) 95,74 %
20.10.2017 05:50 13,6 C 12,2 C 11,7 C 94 % 15 lf 1007,1 hPa 0,2 l/m 0 min 2 min 0 W/m 16,7 km/h (3 Bft) 97,83 %
20.10.2017 05:52 13,6 C 12,8 C 11,7 C 94 % 15 lf 1007,1 hPa 0,2 l/m 0 min 2 min 0 W/m 23,0 km/h (4 Bft) 97,87 %
20.10.2017 05:54 13,7 C 12,8 C 11,7 C 94 % 15 lf 1007,1 hPa 0,0 l/m 0 min 2 min 0 W/m 14,6 km/h (3 Bft) 95,74 %
20.10.2017 05:56 13,7 C 12,8 C 11,7 C 94 % 15 lf 1007,1 hPa 0,0 l/m 0 min 2 min 0 W/m 23,0 km/h (4 Bft) 95,74 %
20.10.2017 05:58 13,7 C 12,8 C 12,2 C 94 % 15 lf 1007,1 hPa 0,0 l/m 0 min 2 min 0 W/m 16,7 km/h (3 Bft) 97,87 %
20.10.2017 06:00 13,8 C 12,8 C 12,2 C 94 % 15 lf 1007,1 hPa 0,2 l/m 0 min 2 min 0 W/m 25,1 km/h (4 Bft) 100,00 %
20.10.2017 06:02 13,9 C 13,3 C 12,2 C 94 % 15 lf 1006,9 hPa 0,0 l/m 0 min 2 min 0 W/m 23,0 km/h (4 Bft) 97,83 %
20.10.2017 06:04 13,9 C 13,3 C 12,2 C 94 % 15 lf 1006,9 hPa 0,2 l/m 0 min 2 min 0 W/m 18,8 km/h (3 Bft) 100,00 %
20.10.2017 06:06 14,0 C 13,3 C 12,2 C 94 % 15 lf 1006,9 hPa 0,0 l/m 0 min 2 min 0 W/m 18,8 km/h (3 Bft) 95,74 %
20.10.2017 06:10 14,2 C 13,3 C 12,8 C 95 % 15 lf 1006,8 hPa 0,0 l/m 0 min 4 min 0 W/m 20,9 km/h (4 Bft) 99,02 %
20.10.2017 06:12 14,2 C 13,3 C 12,8 C 95 % 15 lf 1006,7 hPa 0,0 l/m 0 min 2 min 0 W/m 12,6 km/h (3 Bft) 100,00 %
20.10.2017 06:14 14,2 C 13,9 C 12,8 C 95 % 15 lf 1006,8 hPa 0,0 l/m 0 min 0 min 0 W/m 18,8 km/h (3 Bft) 100,00 %
20.10.2017 06:16 14,3 C 13,9 C 12,8 C 95 % 15 lf 1006,7 hPa 0,0 l/m 0 min 0 min 0 W/m 20,9 km/h (4 Bft) 97,87 %
20.10.2017 06:18 14,3 C 13,9 C 12,8 C 95 % 15 lf 1006,7 hPa 0,0 l/m 0 min 0 min 0 W/m 16,7 km/h (3 Bft) 97,87 %
20.10.2017 06:20 14,4 C 13,9 C 12,8 C 95 % 15 lf 1006,6 hPa 0,0 l/m 0 min 0 min 0 W/m 20,9 km/h (4 Bft) 100,00 %
20.10.2017 06:22 14,4 C 13,9 C 12,8 C 95 % 15 lf 1006,6 hPa 0,0 l/m 0 min 0 min 0 W/m 18,8 km/h (3 Bft) 95,74 %
20.10.2017 06:24 14,5 C 13,9 C 12,8 C 95 % 15 lf 1006,6 hPa 0,0 l/m 0 min 0 min 0 W/m 18,8 km/h (3 Bft) 97,87 %
20.10.2017 06:26 14,5 C 13,9 C 12,8 C 96 % 15 lf 1006,6 hPa 0,0 l/m 0 min 0 min 0 W/m 16,7 km/h (3 Bft) 100,00 %
20.10.2017 06:28 14,6 C 13,9 C 12,8 C 96 % 15 lf 1006,6 hPa 0,0 l/m 0 min 0 min 0 W/m 23,0 km/h (4 Bft) 97,87 %
20.10.2017 06:30 14,6 C 13,9 C 12,8 C 96 % 15 lf 1006,7 hPa 0,0 l/m 0 min 0 min 0 W/m 16,7 km/h (3 Bft) 100,00 %
20.10.2017 06:32 14,6 C 13,9 C 12,8 C 96 % 15 lf 1006,6 hPa 0,0 l/m 0 min 2 min 0 W/m 20,9 km/h (4 Bft) 97,87 %
20.10.2017 06:34 14,6 C 13,9 C 12,8 C 96 % 15 lf 1006,6 hPa 0,0 l/m 0 min 2 min 0 W/m 16,7 km/h (3 Bft) 100,00 %
20.10.2017 06:36 14,6 C 13,9 C 12,8 C 96 % 15 lf 1006,6 hPa 0,0 l/m 0 min 2 min 0 W/m 23,0 km/h (4 Bft) 95,74 %
20.10.2017 06:38 14,7 C 13,9 C 12,8 C 96 % 15 lf 1006,6 hPa 0,0 l/m 0 min 2 min 0 W/m 20,9 km/h (4 Bft) 95,65 %
20.10.2017 06:40 14,7 C 13,9 C 12,8 C 96 % 15 lf 1006,5 hPa 0,0 l/m 0 min 2 min 0 W/m 18,8 km/h (3 Bft) 97,87 %
20.10.2017 06:42 14,7 C 13,9 C 12,8 C 96 % 15 lf 1006,6 hPa 0,0 l/m 0 min 0 min 0 W/m 16,7 km/h (3 Bft) 95,74 %
20.10.2017 06:44 14,7 C 13,9 C 12,8 C 96 % 15 lf 1006,7 hPa 0,0 l/m 0 min 0 min 0 W/m 14,6 km/h (3 Bft) 95,74 %
20.10.2017 06:46 14,7 C 13,9 C 12,8 C 96 % 15 lf 1006,7 hPa 0,2 l/m 0 min 2 min 0 W/m 20,9 km/h (4 Bft) 95,74 %
20.10.2017 06:48 14,7 C 13,9 C 12,8 C 96 % 15 lf 1006,8 hPa 0,0 l/m 0 min 2 min 0 W/m 20,9 km/h (4 Bft) 95,74 %
20.10.2017 06:50 14,7 C 13,9 C 12,8 C 96 % 15 lf 1006,7 hPa 0,0 l/m 0 min 2 min 0 W/m 20,9 km/h (4 Bft) 91,30 %
20.10.2017 06:52 14,7 C 13,9 C 12,8 C 96 % 15 lf 1006,8 hPa 0,0 l/m 0 min 2 min 0 W/m 18,8 km/h (3 Bft) 93,62 %
20.10.2017 06:54 14,7 C 13,9 C 12,8 C 96 % 15 lf 1006,8 hPa 0,2 l/m 0 min 2 min 0 W/m 16,7 km/h (3 Bft) 91,49 %
20.10.2017 06:56 14,7 C 13,9 C 12,8 C 96 % 15 lf 1006,7 hPa 0,0 l/m 0 min 2 min 0 W/m 14,6 km/h (3 Bft) 93,62 %
20.10.2017 06:58 14,8 C 13,9 C 12,8 C 96 % 15 lf 1006,7 hPa 0,0 l/m 0 min 2 min 0 W/m 14,6 km/h (3 Bft) 93,62 %
20.10.2017 07:00 14,7 C 13,9 C 12,8 C 96 % 15 lf 1006,7 hPa 0,0 l/m 0 min 2 min 0 W/m 12,6 km/h (3 Bft) 95,74 %
20.10.2017 07:02 14,7 C 13,9 C 12,8 C 96 % 15 lf 1006,6 hPa 0,0 l/m 0 min 2 min 0 W/m 12,6 km/h (3 Bft) 95,65 %
20.10.2017 07:04 14,7 C 13,9 C 12,8 C 96 % 15 lf 1006,6 hPa 0,0 l/m 0 min 2 min 0 W/m 14,6 km/h (3 Bft) 95,74 %
20.10.2017 07:06 14,7 C 13,9 C 12,8 C 96 % 15 lf 1006,6 hPa 0,0 l/m 0 min 2 min 0 W/m 12,6 km/h (3 Bft) 91,49 %
20.10.2017 07:08 14,7 C 13,9 C 12,8 C 96 % 15 lf 1006,6 hPa 0,0 l/m 0 min 2 min 0 W/m 12,6 km/h (3 Bft) 95,74 %
20.10.2017 07:10 14,7 C 13,9 C 12,8 C 96 % 15 lf 1006,7 hPa 0,0 l/m 0 min 0 min 0 W/m 14,6 km/h (3 Bft) 95,74 %
20.10.2017 07:12 14,7 C 13,9 C 12,8 C 96 % 15 lf 1006,7 hPa 0,0 l/m 0 min 0 min 0 W/m 14,6 km/h (3 Bft) 93,48 %
20.10.2017 07:14 14,7 C 13,9 C 12,8 C 96 % 15 lf 1006,7 hPa 0,0 l/m 0 min 0 min 0 W/m 16,7 km/h (3 Bft) 97,87 %
20.10.2017 07:16 14,7 C 13,9 C 12,8 C 96 % 15 lf 1006,7 hPa 0,0 l/m 0 min 0 min 0 W/m 18,8 km/h (3 Bft) 97,87 %
20.10.2017 07:18 14,7 C 13,9 C 12,8 C 96 % 15 lf 1006,6 hPa 0,0 l/m 0 min 0 min 0 W/m 16,7 km/h (3 Bft) 95,74 %
20.10.2017 07:20 14,6 C 13,9 C 12,8 C 96 % 15 lf 1006,6 hPa 0,0 l/m 0 min 0 min 0 W/m 12,6 km/h (3 Bft) 97,87 %
20.10.2017 07:22 14,6 C 13,9 C 12,8 C 96 % 15 lf 1006,6 hPa 0,0 l/m 0 min 0 min 0 W/m 16,7 km/h (3 Bft) 97,87 %
20.10.2017 07:24 14,6 C 13,9 C 12,8 C 96 % 15 lf 1006,5 hPa 0,0 l/m 0 min 0 min 0 W/m 16,7 km/h (3 Bft) 100,00 %
20.10.2017 07:26 14,6 C 13,9 C 12,8 C 96 % 15 lf 1006,4 hPa 0,0 l/m 0 min 0 min 0 W/m 14,6 km/h (3 Bft) 97,83 %
20.10.2017 07:28 14,6 C 13,9 C 12,8 C 96 % 15 lf 1006,4 hPa 0,0 l/m 0 min 0 min 0 W/m 12,6 km/h (3 Bft) 95,74 %
20.10.2017 07:30 14,6 C 13,9 C 12,8 C 96 % 15 lf 1006,4 hPa 0,0 l/m 0 min 0 min 0 W/m 14,6 km/h (3 Bft) 95,74 %
20.10.2017 07:32 14,6 C 13,9 C 12,8 C 96 % 15 lf 1006,4 hPa 0,0 l/m 0 min 0 min 0 W/m 16,7 km/h (3 Bft) 100,00 %
20.10.2017 07:34 14,6 C 13,9 C 12,8 C 96 % 14 lf 1006,5 hPa 0,0 l/m 0 min 0 min 0 W/m 18,8 km/h (3 Bft) 95,74 %
20.10.2017 07:36 14,6 C 13,9 C 12,8 C 96 % 13 lf 1006,5 hPa 0,0 l/m 0 min 0 min 0 W/m 18,8 km/h (3 Bft) 100,00 %
20.10.2017 07:38 14,6 C 13,9 C 12,8 C 96 % 12 lf 1006,5 hPa 0,0 l/m 0 min 0 min 0 W/m 18,8 km/h (3 Bft) 100,00 %
20.10.2017 07:40 14,6 C 13,9 C 12,8 C 96 % 9 lf 1006,4 hPa 0,0 l/m 0 min 0 min 0 W/m 16,7 km/h (3 Bft) 100,00 %
20.10.2017 07:42 14,6 C 13,9 C 12,8 C 96 % 7 lf 1006,3 hPa 0,0 l/m 0 min 0 min 0 W/m 12,6 km/h (3 Bft) 100,00 %
20.10.2017 07:44 14,6 C 13,9 C 12,8 C 96 % 4 lf 1006,3 hPa 0,0 l/m 0 min 0 min 0 W/m 10,5 km/h (2 Bft) 100,00 %
20.10.2017 07:46 14,6 C 13,9 C 12,2 C 95 % 3 lf 1006,3 hPa 0,0 l/m 0 min 0 min 0 W/m 12,6 km/h (3 Bft) 97,87 %
20.10.2017 07:48 14,6 C 13,3 C 12,2 C 95 % 3 lf 1006,3 hPa 0,0 l/m 0 min 0 min 0 W/m 16,7 km/h (3 Bft) 100,00 %
20.10.2017 07:50 14,6 C 13,3 C 12,2 C 95 % 2 lf 1006,3 hPa 0,0 l/m 0 min 0 min 0 W/m 14,6 km/h (3 Bft) 97,87 %
20.10.2017 07:52 14,5 C 13,3 C 12,2 C 95 % 1 lf 1006,3 hPa 0,0 l/m 0 min 0 min 0 W/m 18,8 km/h (3 Bft) 97,87 %
20.10.2017 07:54 14,5 C 13,3 C 12,2 C 95 % 1 lf 1006,3 hPa 0,0 l/m 0 min 0 min 0 W/m 12,6 km/h (3 Bft) 97,87 %
20.10.2017 07:56 14,5 C 13,3 C 12,2 C 95 % 0 lf 1006,3 hPa 0,0 l/m 0 min 0 min 0 W/m 16,7 km/h (3 Bft) 100,00 %
20.10.2017 07:58 14,5 C 13,3 C 12,2 C 95 % 0 lf 1006,3 hPa 0,0 l/m 0 min 0 min 0 W/m 12,6 km/h (3 Bft) 97,87 %
20.10.2017 08:00 14,5 C 13,3 C 12,2 C 95 % 0 lf 1006,3 hPa 0,0 l/m 0 min 0 min 0 W/m 20,9 km/h (4 Bft) 97,83 %
20.10.2017 08:02 14,5 C 13,9 C 12,2 C 95 % 0 lf 1006,3 hPa 0,0 l/m 0 min 0 min 0 W/m 18,8 km/h (3 Bft) 97,87 %
20.10.2017 08:04 14,4 C 13,3 C 12,2 C 95 % 0 lf 1006,3 hPa 0,0 l/m 0 min 0 min 0 W/m 14,6 km/h (3 Bft) 100,00 %
20.10.2017 08:06 14,4 C 13,3 C 12,2 C 95 % 0 lf 1006,4 hPa 0,0 l/m 0 min 0 min 0 W/m 14,6 km/h (3 Bft) 95,74 %
20.10.2017 08:08 14,4 C 13,3 C 12,2 C 95 % 0 lf 1006,3 hPa 0,0 l/m 0 min 0 min 0 W/m 14,6 km/h (3 Bft) 97,87 %
20.10.2017 08:10 14,4 C 13,3 C 12,2 C 95 % 0 lf 1006,3 hPa 0,0 l/m 0 min 0 min 0 W/m 16,7 km/h (3 Bft) 97,87 %
20.10.2017 08:12 14,4 C 13,3 C 12,2 C 95 % 0 lf 1006,3 hPa 0,0 l/m 0 min 0 min 2 W/m 14,6 km/h (3 Bft) 95,65 %
20.10.2017 08:14 14,4 C 13,3 C 12,2 C 95 % 0 lf 1006,3 hPa 0,0 l/m 0 min 0 min 5 W/m 18,8 km/h (3 Bft) 95,74 %
20.10.2017 08:16 14,3 C 13,3 C 12,2 C 95 % 0 lf 1006,3 hPa 0,0 l/m 0 min 0 min 5 W/m 14,6 km/h (3 Bft) 97,87 %
20.10.2017 08:18 14,3 C 13,3 C 12,2 C 95 % 0 lf 1006,2 hPa 0,0 l/m 0 min 0 min 5 W/m 16,7 km/h (3 Bft) 95,74 %
20.10.2017 08:20 14,3 C 13,3 C 12,2 C 95 % 0 lf 1006,2 hPa 0,0 l/m 0 min 0 min 5 W/m 18,8 km/h (3 Bft) 98,00 %
20.10.2017 08:22 14,3 C 13,3 C 12,2 C 95 % 0 lf 1006,2 hPa 0,0 l/m 0 min 0 min 6 W/m 14,6 km/h (3 Bft) 97,14 %
20.10.2017 08:24 14,3 C 13,3 C 12,2 C 94 % 0 lf 1006,2 hPa 0,0 l/m 0 min 0 min 7 W/m 20,9 km/h (4 Bft) 98,31 %
20.10.2017 08:26 14,2 C 13,3 C 12,2 C 94 % 0 lf 1006,2 hPa 0,0 l/m 0 min 0 min 8 W/m 10,5 km/h (2 Bft) 97,87 %
20.10.2017 08:28 14,2 C 13,3 C 12,2 C 95 % 0 lf 1006,2 hPa 0,0 l/m 0 min 0 min 11 W/m 12,6 km/h (3 Bft) 95,74 %
20.10.2017 08:30 14,2 C 13,3 C 12,2 C 94 % 0 lf 1006,2 hPa 0,0 l/m 0 min 0 min 14 W/m 16,7 km/h (3 Bft) 95,65 %
20.10.2017 08:32 14,2 C 13,3 C 12,2 C 94 % 0 lf 1006,2 hPa 0,0 l/m 0 min 0 min 19 W/m 12,6 km/h (3 Bft) 95,74 %
20.10.2017 08:34 14,2 C 13,3 C 12,2 C 94 % 0 lf 1006,3 hPa 0,0 l/m 0 min 0 min 23 W/m 16,7 km/h (3 Bft) 95,74 %
20.10.2017 08:36 14,2 C 13,3 C 12,2 C 94 % 0 lf 1006,3 hPa 0,0 l/m 0 min 0 min 26 W/m 16,7 km/h (3 Bft) 93,62 %
20.10.2017 08:38 14,2 C 13,9 C 12,2 C 94 % 0 lf 1006,2 hPa 0,0 l/m 0 min 0 min 30 W/m 14,6 km/h (3 Bft) 93,62 %
20.10.2017 08:40 14,2 C 13,9 C 12,2 C 94 % 0 lf 1006,2 hPa 0,0 l/m 0 min 0 min 27 W/m 10,5 km/h (2 Bft) 91,49 %
20.10.2017 08:42 14,2 C 13,9 C 12,2 C 94 % 0 lf 1006,2 hPa 0,0 l/m 0 min 0 min 22 W/m 16,7 km/h (3 Bft) 97,83 %
20.10.2017 08:44 14,2 C 13,9 C 12,2 C 94 % 0 lf 1006,3 hPa 0,0 l/m 0 min 0 min 20 W/m 14,6 km/h (3 Bft) 95,74 %
20.10.2017 08:46 14,2 C 13,9 C 12,2 C 94 % 0 lf 1006,2 hPa 0,0 l/m 0 min 0 min 22 W/m 16,7 km/h (3 Bft) 93,62 %
20.10.2017 08:48 14,2 C 13,9 C 12,8 C 94 % 0 lf 1006,3 hPa 0,0 l/m 0 min 0 min 33 W/m 16,7 km/h (3 Bft) 95,74 %
20.10.2017 08:50 14,3 C 13,9 C 12,8 C 94 % 0 lf 1006,4 hPa 0,0 l/m 0 min 0 min 39 W/m 16,7 km/h (3 Bft) 91,49 %
20.10.2017 08:52 14,3 C 13,9 C 12,8 C 94 % 0 lf 1006,4 hPa 0,0 l/m 0 min 0 min 32 W/m 16,7 km/h (3 Bft) 92,86 %
20.10.2017 08:54 14,3 C 13,9 C 12,8 C 94 % 0 lf 1006,3 hPa 0,0 l/m 0 min 2 min 32 W/m 18,8 km/h (3 Bft) 95,74 %
20.10.2017 08:56 14,4 C 13,9 C 12,8 C 94 % 0 lf 1006,3 hPa 0,0 l/m 0 min 0 min 24 W/m 18,8 km/h (3 Bft) 93,62 %
20.10.2017 08:58 14,4 C 13,9 C 12,8 C 94 % 0 lf 1006,3 hPa 0,0 l/m 0 min 2 min 24 W/m 20,9 km/h (4 Bft) 95,74 %
20.10.2017 09:00 14,4 C 13,9 C 12,8 C 94 % 0 lf 1006,3 hPa 0,0 l/m 0 min 2 min 33 W/m 16,7 km/h (3 Bft) 95,65 %
20.10.2017 09:02 14,4 C 13,9 C 12,8 C 94 % 0 lf 1006,3 hPa 0,0 l/m 0 min 0 min 34 W/m 23,0 km/h (4 Bft) 93,62 %
20.10.2017 09:04 14,5 C 13,9 C 12,8 C 94 % 0 lf 1006,4 hPa 0,0 l/m 0 min 0 min 29 W/m 27,2 km/h (4 Bft) 98,08 %
20.10.2017 09:06 14,6 C 13,9 C 13,3 C 94 % 0 lf 1006,3 hPa 0,0 l/m 0 min 0 min 20 W/m 23,0 km/h (4 Bft) 95,65 %
20.10.2017 09:08 14,6 C 14,4 C 13,3 C 94 % 0 lf 1006,4 hPa 0,0 l/m 0 min 0 min 20 W/m 25,1 km/h (4 Bft) 95,74 %
20.10.2017 09:10 14,6 C 14,4 C 13,3 C 94 % 0 lf 1006,4 hPa 0,0 l/m 0 min 0 min 14 W/m 25,1 km/h (4 Bft) 93,62 %
20.10.2017 09:12 14,7 C 14,4 C 13,3 C 94 % 0 lf 1006,4 hPa 0,0 l/m 0 min 2 min 9 W/m 23,0 km/h (4 Bft) 93,62 %
20.10.2017 09:14 14,7 C 14,4 C 13,3 C 94 % 0 lf 1006,4 hPa 0,0 l/m 0 min 2 min 15 W/m 20,9 km/h (4 Bft) 93,62 %
20.10.2017 09:16 14,8 C 14,4 C 13,3 C 94 % 0 lf 1006,4 hPa 0,0 l/m 0 min 2 min 20 W/m 20,9 km/h (4 Bft) 95,74 %
20.10.2017 09:18 14,8 C 14,4 C 13,3 C 94 % 0 lf 1006,4 hPa 0,0 l/m 0 min 2 min 23 W/m 27,2 km/h (4 Bft) 97,83 %
20.10.2017 09:20 14,8 C 15,0 C 13,3 C 94 % 0 lf 1006,5 hPa 0,0 l/m 0 min 2 min 13 W/m 29,3 km/h (5 Bft) 97,87 %
20.10.2017 09:22 14,9 C 15,0 C 13,3 C 93 % 0 lf 1006,5 hPa 0,0 l/m 0 min 2 min 15 W/m 20,9 km/h (4 Bft) 95,74 %
20.10.2017 09:24 14,9 C 15,0 C 13,3 C 93 % 0 lf 1006,5 hPa 0,0 l/m 0 min 2 min 24 W/m 20,9 km/h (4 Bft) 95,74 %
20.10.2017 09:26 14,9 C 15,0 C 13,3 C 93 % 0 lf 1006,5 hPa 0,0 l/m 0 min 0 min 25 W/m 20,9 km/h (4 Bft) 97,87 %
20.10.2017 09:28 14,9 C 15,0 C 13,3 C 93 % 0 lf 1006,6 hPa 0,0 l/m 0 min 0 min 22 W/m 29,3 km/h (5 Bft) 91,30 %
20.10.2017 09:30 15,0 C 15,0 C 13,3 C 93 % 0 lf 1006,5 hPa 0,0 l/m 0 min 0 min 21 W/m 20,9 km/h (4 Bft) 93,62 %
20.10.2017 09:32 15,1 C 15,6 C 13,3 C 93 % 0 lf 1006,5 hPa 0,0 l/m 0 min 2 min 18 W/m 23,0 km/h (4 Bft) 93,62 %
20.10.2017 09:34 15,1 C 15,6 C 13,3 C 93 % 0 lf 1006,5 hPa 0,0 l/m 0 min 0 min 12 W/m 20,9 km/h (4 Bft) 97,87 %
20.10.2017 09:36 15,1 C 15,0 C 13,3 C 93 % 0 lf 1006,5 hPa 0,0 l/m 0 min 0 min 8 W/m 35,6 km/h (5 Bft) 95,74 %
20.10.2017 09:38 15,1 C 15,0 C 13,3 C 92 % 1 lf 1006,5 hPa 0,0 l/m 0 min 2 min 7 W/m 35,6 km/h (5 Bft) 95,74 %
20.10.2017 09:40 15,2 C 14,4 C 13,3 C 92 % 0 lf 1006,5 hPa 0,0 l/m 0 min 2 min 9 W/m 23,0 km/h (4 Bft) 93,48 %
20.10.2017 09:42 15,2 C 14,4 C 13,3 C 92 % 0 lf 1006,6 hPa 0,0 l/m 0 min 2 min 16 W/m 18,8 km/h (3 Bft) 95,74 %
20.10.2017 09:44 15,2 C 14,4 C 13,3 C 92 % 2 lf 1006,7 hPa 0,0 l/m 0 min 2 min 20 W/m 33,5 km/h (5 Bft) 95,74 %
20.10.2017 09:46 15,2 C 13,9 C 12,8 C 92 % 15 lf 1006,9 hPa 0,6 l/m 0 min 2 min 22 W/m 23,0 km/h (4 Bft) 93,62 %
20.10.2017 09:48 15,3 C 13,9 C 12,8 C 92 % 15 lf 1007,0 hPa 0,6 l/m 0 min 2 min 25 W/m 20,9 km/h (4 Bft) 95,74 %
20.10.2017 09:50 15,2 C 13,9 C 12,8 C 92 % 15 lf 1007,1 hPa 0,6 l/m 0 min 2 min 23 W/m 31,4 km/h (5 Bft) 93,62 %
20.10.2017 09:52 15,2 C 13,9 C 12,8 C 92 % 15 lf 1007,2 hPa 0,2 l/m 0 min 2 min 22 W/m 25,1 km/h (4 Bft) 93,48 %
20.10.2017 09:54 15,2 C 13,9 C 12,8 C 92 % 15 lf 1007,3 hPa 0,0 l/m 0 min 2 min 24 W/m 23,0 km/h (4 Bft) 97,87 %
20.10.2017 09:56 15,2 C 13,9 C 12,8 C 92 % 15 lf 1007,4 hPa 0,0 l/m 0 min 2 min 21 W/m 25,1 km/h (4 Bft) 95,74 %
20.10.2017 09:58 15,1 C 13,9 C 12,8 C 92 % 15 lf 1007,6 hPa 0,2 l/m 0 min 2 min 16 W/m 25,1 km/h (4 Bft) 97,87 %
20.10.2017 10:00 15,1 C 13,9 C 12,8 C 93 % 15 lf 1007,5 hPa 0,2 l/m 0 min 2 min 26 W/m 16,7 km/h (3 Bft) 95,74 %
20.10.2017 10:02 15,1 C 13,9 C 12,8 C 93 % 15 lf 1007,6 hPa 0,0 l/m 0 min 2 min 41 W/m 27,2 km/h (4 Bft) 91,49 %
20.10.2017 10:04 14,9 C 13,3 C 12,8 C 93 % 15 lf 1007,5 hPa 0,2 l/m 0 min 2 min 36 W/m 27,2 km/h (4 Bft) 97,83 %
20.10.2017 10:06 14,8 C 13,3 C 12,2 C 93 % 15 lf 1007,5 hPa 0,0 l/m 0 min 2 min 29 W/m 23,0 km/h (4 Bft) 97,87 %
20.10.2017 10:08 14,8 C 13,3 C 12,2 C 93 % 15 lf 1007,6 hPa 0,0 l/m 0 min 2 min 26 W/m 18,8 km/h (3 Bft) 97,87 %
20.10.2017 10:10 14,7 C 12,8 C 12,2 C 93 % 15 lf 1007,7 hPa 0,0 l/m 0 min 2 min 29 W/m 23,0 km/h (4 Bft) 95,74 %
20.10.2017 10:12 14,6 C 13,3 C 12,2 C 93 % 15 lf 1007,6 hPa 0,2 l/m 0 min 2 min 35 W/m 18,8 km/h (3 Bft) 97,87 %
20.10.2017 10:14 14,6 C 13,3 C 12,2 C 93 % 15 lf 1007,8 hPa 0,0 l/m 0 min 0 min 36 W/m 20,9 km/h (4 Bft) 97,87 %
20.10.2017 10:16 14,5 C 13,3 C 12,2 C 93 % 15 lf 1007,8 hPa 0,0 l/m 0 min 0 min 32 W/m 14,6 km/h (3 Bft) 95,65 %
20.10.2017 10:18 14,4 C 12,8 C 12,2 C 93 % 15 lf 1007,8 hPa 0,0 l/m 0 min 0 min 31 W/m 31,4 km/h (5 Bft) 97,87 %
20.10.2017 10:20 14,3 C 12,8 C 12,2 C 93 % 15 lf 1007,9 hPa 0,0 l/m 0 min 2 min 31 W/m 31,4 km/h (5 Bft) 100,00 %
20.10.2017 10:22 14,2 C 12,8 C 12,2 C 93 % 15 lf 1007,9 hPa 0,0 l/m 0 min 2 min 36 W/m 37,7 km/h (5 Bft) 97,87 %
20.10.2017 10:24 14,2 C 12,8 C 12,2 C 93 % 15 lf 1007,9 hPa 0,0 l/m 0 min 2 min 37 W/m 29,3 km/h (5 Bft) 97,87 %
20.10.2017 10:26 14,2 C 12,8 C 12,2 C 93 % 15 lf 1007,9 hPa 0,0 l/m 0 min 2 min 43 W/m 31,4 km/h (5 Bft) 97,87 %
20.10.2017 10:28 14,1 C 12,8 C 12,2 C 93 % 15 lf 1007,9 hPa 0,0 l/m 0 min 0 min 55 W/m 25,1 km/h (4 Bft) 97,83 %
20.10.2017 10:30 14,0 C 12,8 C 12,2 C 93 % 15 lf 1007,8 hPa 0,0 l/m 0 min 2 min 66 W/m 27,2 km/h (4 Bft) 97,87 %
20.10.2017 10:32 13,9 C 12,8 C 12,2 C 93 % 15 lf 1007,9 hPa 0,0 l/m 0 min 2 min 69 W/m 25,1 km/h (4 Bft) 97,87 %
20.10.2017 10:34 13,9 C 12,8 C 11,7 C 93 % 15 lf 1007,9 hPa 0,0 l/m 0 min 0 min 67 W/m 23,0 km/h (4 Bft) 95,74 %
20.10.2017 10:36 13,8 C 14,4 C 12,2 C 93 % 15 lf 1007,9 hPa 0,0 l/m 2 min 0 min 185 W/m 25,1 km/h (4 Bft) 97,87 %
20.10.2017 10:38 13,8 C 13,9 C 12,2 C 93 % 15 lf 1007,9 hPa 0,0 l/m 0 min 0 min 144 W/m 31,4 km/h (5 Bft) 95,65 %
20.10.2017 10:40 13,8 C 13,9 C 12,2 C 93 % 15 lf 1007,9 hPa 0,0 l/m 0 min 0 min 111 W/m 25,1 km/h (4 Bft) 95,74 %
20.10.2017 10:42 13,8 C 13,9 C 12,2 C 93 % 15 lf 1007,9 hPa 0,0 l/m 0 min 2 min 82 W/m 27,2 km/h (4 Bft) 100,00 %
20.10.2017 10:44 13,8 C 14,4 C 12,2 C 93 % 15 lf 1007,9 hPa 0,0 l/m 2 min 0 min 184 W/m 27,2 km/h (4 Bft) 95,74 %
20.10.2017 10:46 13,8 C 15,0 C 12,2 C 93 % 15 lf 1008,0 hPa 0,0 l/m 2 min 0 min 191 W/m 23,0 km/h (4 Bft) 95,74 %
20.10.2017 10:48 13,8 C 16,1 C 12,2 C 93 % 15 lf 1008,1 hPa 0,0 l/m 2 min 0 min 273 W/m 25,1 km/h (4 Bft) 95,74 %
20.10.2017 10:50 13,8 C 16,7 C 12,2 C 93 % 15 lf 1008,1 hPa 0,0 l/m 2 min 0 min 315 W/m 23,0 km/h (4 Bft) 95,65 %
20.10.2017 10:52 13,9 C 17,2 C 12,8 C 93 % 15 lf 1008,0 hPa 0,0 l/m 2 min 0 min 322 W/m 27,2 km/h (4 Bft) 95,74 %
20.10.2017 10:54 14,0 C 16,1 C 12,8 C 93 % 15 lf 1008,0 hPa 0,0 l/m 2 min 0 min 306 W/m 25,1 km/h (4 Bft) 91,49 %
20.10.2017 10:56 14,0 C 15,0 C 12,2 C 93 % 15 lf 1008,1 hPa 0,0 l/m 0 min 0 min 134 W/m 33,5 km/h (5 Bft) 95,74 %
20.10.2017 10:58 13,9 C 14,4 C 12,2 C 92 % 15 lf 1008,0 hPa 0,0 l/m 2 min 0 min 202 W/m 27,2 km/h (4 Bft) 93,62 %
20.10.2017 11:00 13,9 C 14,4 C 12,2 C 92 % 15 lf 1008,1 hPa 0,0 l/m 0 min 0 min 78 W/m 27,2 km/h (4 Bft) 97,87 %
20.10.2017 11:02 13,9 C 15,6 C 12,8 C 92 % 15 lf 1008,2 hPa 0,0 l/m 0 min 0 min 90 W/m 23,0 km/h (4 Bft) 97,83 %
20.10.2017 11:04 14,0 C 16,1 C 12,8 C 92 % 15 lf 1008,2 hPa 0,0 l/m 2 min 0 min 361 W/m 18,8 km/h (3 Bft) 97,87 %
20.10.2017 11:06 14,1 C 16,7 C 12,8 C 92 % 15 lf 1008,1 hPa 0,0 l/m 2 min 0 min 292 W/m 18,8 km/h (3 Bft) 95,74 %
20.10.2017 11:08 14,2 C 15,6 C 12,8 C 92 % 15 lf 1008,1 hPa 0,0 l/m 0 min 0 min 158 W/m 20,9 km/h (4 Bft) 97,87 %
20.10.2017 11:10 14,2 C 17,2 C 12,8 C 92 % 15 lf 1008,1 hPa 0,0 l/m 0 min 0 min 158 W/m 10,5 km/h (2 Bft) 95,74 %
20.10.2017 11:12 14,2 C 17,8 C 12,8 C 92 % 15 lf 1008,2 hPa 0,0 l/m 2 min 0 min 233 W/m 12,6 km/h (3 Bft) 97,87 %
20.10.2017 11:14 14,2 C 17,8 C 13,3 C 92 % 15 lf 1008,2 hPa 0,0 l/m 2 min 0 min 238 W/m 20,9 km/h (4 Bft) 95,65 %
20.10.2017 11:16 14,3 C 18,9 C 13,3 C 92 % 15 lf 1008,2 hPa 0,0 l/m 2 min 0 min 244 W/m 35,6 km/h (5 Bft) 95,74 %
20.10.2017 11:18 14,4 C 18,9 C 13,3 C 92 % 15 lf 1008,1 hPa 0,0 l/m 2 min 0 min 422 W/m 37,7 km/h (5 Bft) 97,87 %
20.10.2017 11:20 14,4 C 19,4 C 13,3 C 92 % 15 lf 1008,2 hPa 0,0 l/m 2 min 0 min 416 W/m 29,3 km/h (5 Bft) 97,87 %
20.10.2017 11:22 14,5 C 20,0 C 13,3 C 91 % 15 lf 1008,2 hPa 0,0 l/m 2 min 0 min 427 W/m 29,3 km/h (5 Bft) 97,87 %
20.10.2017 11:24 14,6 C 19,4 C 13,3 C 90 % 15 lf 1008,2 hPa 0,0 l/m 2 min 0 min 444 W/m 18,8 km/h (3 Bft) 97,87 %
20.10.2017 11:26 14,7 C 21,1 C 13,9 C 90 % 14 lf 1008,2 hPa 0,0 l/m 2 min 0 min 458 W/m 29,3 km/h (5 Bft) 95,65 %
20.10.2017 11:28 14,7 C 20,6 C 13,3 C 90 % 9 lf 1008,2 hPa 0,0 l/m 2 min 0 min 446 W/m 25,1 km/h (4 Bft) 97,87 %
20.10.2017 11:30 14,8 C 18,9 C 13,3 C 89 % 4 lf 1008,2 hPa 0,0 l/m 2 min 0 min 342 W/m 27,2 km/h (4 Bft) 97,87 %
20.10.2017 11:32 14,8 C 18,3 C 13,3 C 88 % 1 lf 1008,2 hPa 0,0 l/m 2 min 0 min 248 W/m 35,6 km/h (5 Bft) 97,87 %
20.10.2017 11:34 14,8 C 16,7 C 12,8 C 87 % 0 lf 1008,2 hPa 0,0 l/m 2 min 0 min 272 W/m 35,6 km/h (5 Bft) 100,00 %
20.10.2017 11:36 14,8 C 16,1 C 12,8 C 87 % 0 lf 1008,3 hPa 0,0 l/m 2 min 0 min 225 W/m 33,5 km/h (5 Bft) 97,87 %
20.10.2017 11:38 14,7 C 16,7 C 12,8 C 86 % 0 lf 1008,4 hPa 0,0 l/m 2 min 0 min 321 W/m 41,8 km/h (6 Bft) 100,00 %
20.10.2017 11:40 14,7 C 16,1 C 12,8 C 86 % 0 lf 1008,3 hPa 0,0 l/m 0 min 0 min 145 W/m 31,4 km/h (5 Bft) 100,00 %
20.10.2017 11:42 14,7 C 16,7 C 12,8 C 86 % 0 lf 1008,3 hPa 0,0 l/m 0 min 0 min 104 W/m 37,7 km/h (5 Bft) 100,00 %
20.10.2017 11:44 14,7 C 18,3 C 12,8 C 85 % 0 lf 1008,4 hPa 0,0 l/m 0 min 0 min 104 W/m 35,6 km/h (5 Bft) 97,87 %
20.10.2017 11:46 14,7 C 18,3 C 13,3 C 85 % 0 lf 1008,4 hPa 0,0 l/m 0 min 0 min 180 W/m 31,4 km/h (5 Bft) 100,00 %
20.10.2017 11:48 14,8 C 19,4 C 13,3 C 85 % 0 lf 1008,3 hPa 0,0 l/m 2 min 0 min 443 W/m 33,5 km/h (5 Bft) 100,00 %
20.10.2017 11:50 14,8 C 20,0 C 13,3 C 85 % 0 lf 1008,3 hPa 0,0 l/m 2 min 0 min 501 W/m 25,1 km/h (4 Bft) 97,87 %
20.10.2017 11:52 14,9 C 19,4 C 13,3 C 85 % 0 lf 1008,2 hPa 0,0 l/m 2 min 0 min 520 W/m 29,3 km/h (5 Bft) 100,00 %
20.10.2017 11:54 15,0 C 21,1 C 13,3 C 85 % 0 lf 1008,2 hPa 0,0 l/m 2 min 0 min 532 W/m 35,6 km/h (5 Bft) 100,00 %
20.10.2017 11:56 15,1 C 22,2 C 13,9 C 84 % 0 lf 1008,4 hPa 0,0 l/m 2 min 0 min 486 W/m 29,3 km/h (5 Bft) 97,87 %
20.10.2017 11:58 15,2 C 21,7 C 13,3 C 84 % 0 lf 1008,3 hPa 0,0 l/m 2 min 0 min 452 W/m 46,0 km/h (6 Bft) 97,87 %
20.10.2017 12:00 15,2 C 21,7 C 13,3 C 83 % 0 lf 1008,5 hPa 0,0 l/m 2 min 0 min 452 W/m 39,7 km/h (6 Bft) 95,74 %
20.10.2017 12:02 15,3 C 21,1 C 13,3 C 82 % 0 lf 1008,5 hPa 0,0 l/m 2 min 0 min 445 W/m 37,7 km/h (5 Bft) 97,87 %
20.10.2017 12:04 15,4 C 21,7 C 13,9 C 81 % 0 lf 1008,4 hPa 0,0 l/m 2 min 0 min 446 W/m 33,5 km/h (5 Bft) 100,00 %
20.10.2017 12:06 15,4 C 21,1 C 13,9 C 80 % 0 lf 1008,4 hPa 0,0 l/m 2 min 0 min 460 W/m 39,7 km/h (6 Bft) 97,87 %
20.10.2017 12:10 15,6 C 22,2 C 14,4 C 79 % 0 lf 1008,5 hPa 0,0 l/m 4 min 0 min 453 W/m 39,7 km/h (6 Bft) 97,59 %
20.10.2017 12:12 15,6 C 20,0 C 14,4 C 78 % 0 lf 1008,5 hPa 0,0 l/m 2 min 0 min 452 W/m 41,8 km/h (6 Bft) 97,87 %
20.10.2017 12:14 15,6 C 20,0 C 14,4 C 78 % 0 lf 1008,6 hPa 0,0 l/m 2 min 0 min 468 W/m 37,7 km/h (5 Bft) 97,87 %
20.10.2017 12:16 15,6 C 18,3 C 13,9 C 77 % 0 lf 1008,6 hPa 0,0 l/m 2 min 0 min 228 W/m 46,0 km/h (6 Bft) 97,83 %
20.10.2017 12:18 15,5 C 17,8 C 13,9 C 77 % 0 lf 1008,6 hPa 0,0 l/m 0 min 0 min 98 W/m 37,7 km/h (5 Bft) 95,74 %
20.10.2017 12:20 15,4 C 18,3 C 13,9 C 77 % 0 lf 1008,6 hPa 0,0 l/m 2 min 0 min 325 W/m 37,7 km/h (5 Bft) 95,74 %
20.10.2017 12:22 15,4 C 17,8 C 13,9 C 77 % 0 lf 1008,7 hPa 0,0 l/m 2 min 0 min 244 W/m 35,6 km/h (5 Bft) 95,74 %
20.10.2017 12:24 15,4 C 17,8 C 13,9 C 77 % 0 lf 1008,7 hPa 0,0 l/m 0 min 0 min 123 W/m 23,0 km/h (4 Bft) 95,74 %
20.10.2017 12:26 15,4 C 16,7 C 13,3 C 77 % 0 lf 1008,7 hPa 0,0 l/m 0 min 0 min 86 W/m 25,1 km/h (4 Bft) 93,48 %
20.10.2017 12:28 15,3 C 17,2 C 13,3 C 77 % 0 lf 1008,6 hPa 0,0 l/m 0 min 0 min 102 W/m 31,4 km/h (5 Bft) 93,62 %
20.10.2017 12:30 15,3 C 18,3 C 13,9 C 77 % 0 lf 1008,7 hPa 0,0 l/m 0 min 0 min 99 W/m 29,3 km/h (5 Bft) 95,74 %
20.10.2017 12:32 15,3 C 18,3 C 13,9 C 78 % 0 lf 1008,6 hPa 0,0 l/m 2 min 0 min 431 W/m 37,7 km/h (5 Bft) 97,87 %
20.10.2017 12:34 15,3 C 19,4 C 13,9 C 78 % 0 lf 1008,7 hPa 0,0 l/m 0 min 0 min 111 W/m 35,6 km/h (5 Bft) 93,62 %
20.10.2017 12:36 15,3 C 18,9 C 13,3 C 78 % 0 lf 1008,7 hPa 0,0 l/m 0 min 0 min 139 W/m 25,1 km/h (4 Bft) 89,36 %
20.10.2017 12:38 15,3 C 20,0 C 13,9 C 78 % 0 lf 1008,6 hPa 0,0 l/m 2 min 0 min 259 W/m 25,1 km/h (4 Bft) 93,48 %
20.10.2017 12:40 15,3 C 17,2 C 13,3 C 78 % 0 lf 1008,6 hPa 0,0 l/m 0 min 0 min 158 W/m 27,2 km/h (4 Bft) 95,74 %
20.10.2017 12:42 15,3 C 16,7 C 13,3 C 77 % 0 lf 1008,5 hPa 0,0 l/m 0 min 0 min 73 W/m 35,6 km/h (5 Bft) 91,49 %
20.10.2017 12:44 15,3 C 18,3 C 13,3 C 77 % 0 lf 1008,7 hPa 0,0 l/m 2 min 0 min 288 W/m 39,7 km/h (6 Bft) 89,36 %
20.10.2017 12:46 15,3 C 20,6 C 13,9 C 78 % 0 lf 1008,7 hPa 0,0 l/m 2 min 0 min 507 W/m 31,4 km/h (5 Bft) 95,74 %
20.10.2017 12:48 15,3 C 21,1 C 13,9 C 78 % 0 lf 1008,8 hPa 0,0 l/m 2 min 0 min 508 W/m 31,4 km/h (5 Bft) 91,49 %
20.10.2017 12:50 15,4 C 22,2 C 14,4 C 78 % 0 lf 1008,8 hPa 0,0 l/m 2 min 0 min 513 W/m 29,3 km/h (5 Bft) 93,48 %
20.10.2017 12:52 15,5 C 20,0 C 14,4 C 78 % 0 lf 1008,8 hPa 0,0 l/m 2 min 0 min 407 W/m 29,3 km/h (5 Bft) 91,49 %
20.10.2017 12:54 15,5 C 18,9 C 14,4 C 78 % 0 lf 1008,8 hPa 0,0 l/m 0 min 0 min 165 W/m 31,4 km/h (5 Bft) 91,49 %
20.10.2017 12:56 15,6 C 17,2 C 14,4 C 78 % 0 lf 1008,8 hPa 0,0 l/m 0 min 0 min 147 W/m 41,8 km/h (6 Bft) 93,62 %
20.10.2017 12:58 15,5 C 16,7 C 13,9 C 77 % 0 lf 1008,8 hPa 0,0 l/m 0 min 0 min 129 W/m 25,1 km/h (4 Bft) 95,74 %
20.10.2017 13:00 15,5 C 17,8 C 14,4 C 77 % 0 lf 1008,8 hPa 0,0 l/m 0 min 0 min 194 W/m 27,2 km/h (4 Bft) 95,74 %
20.10.2017 13:02 15,4 C 17,8 C 14,4 C 76 % 0 lf 1008,9 hPa 0,0 l/m 0 min 0 min 197 W/m 37,7 km/h (5 Bft) 93,48 %
20.10.2017 13:04 15,4 C 17,2 C 14,4 C 75 % 0 lf 1008,9 hPa 0,0 l/m 0 min 0 min 206 W/m 33,5 km/h (5 Bft) 95,74 %
20.10.2017 13:06 15,4 C 18,3 C 15,0 C 75 % 0 lf 1008,9 hPa 0,0 l/m 2 min 0 min 275 W/m 33,5 km/h (5 Bft) 91,49 %
20.10.2017 13:08 15,4 C 18,3 C 14,4 C 74 % 0 lf 1008,9 hPa 0,0 l/m 2 min 0 min 276 W/m 39,7 km/h (6 Bft) 93,62 %
20.10.2017 13:10 15,5 C 20,0 C 15,0 C 74 % 0 lf 1009,0 hPa 0,0 l/m 2 min 0 min 510 W/m 50,2 km/h (7 Bft) 95,74 %
20.10.2017 13:12 15,6 C 20,6 C 15,0 C 74 % 0 lf 1008,9 hPa 0,0 l/m 2 min 0 min 596 W/m 39,7 km/h (6 Bft) 97,87 %
20.10.2017 13:14 15,7 C 20,0 C 15,0 C 74 % 0 lf 1008,9 hPa 0,0 l/m 2 min 0 min 538 W/m 48,1 km/h (6 Bft) 91,30 %
20.10.2017 13:16 15,7 C 18,9 C 15,6 C 73 % 0 lf 1009,1 hPa 0,0 l/m 2 min 0 min 311 W/m 37,7 km/h (5 Bft) 97,87 %
20.10.2017 13:18 15,8 C 17,8 C 15,0 C 73 % 0 lf 1009,1 hPa 0,0 l/m 0 min 0 min 218 W/m 39,7 km/h (6 Bft) 97,87 %
20.10.2017 13:20 15,8 C 17,2 C 15,0 C 73 % 0 lf 1009,2 hPa 0,0 l/m 0 min 0 min 204 W/m 33,5 km/h (5 Bft) 95,74 %
20.10.2017 13:22 15,8 C 18,3 C 15,0 C 73 % 0 lf 1009,2 hPa 0,0 l/m 2 min 0 min 243 W/m 43,9 km/h (6 Bft) 100,00 %
20.10.2017 13:24 15,8 C 18,9 C 15,0 C 74 % 0 lf 1009,1 hPa 0,0 l/m 2 min 0 min 262 W/m 39,7 km/h (6 Bft) 100,00 %
20.10.2017 13:26 15,8 C 20,6 C 15,6 C 73 % 0 lf 1009,0 hPa 0,0 l/m 2 min 0 min 565 W/m 37,7 km/h (5 Bft) 100,00 %
20.10.2017 13:28 15,8 C 18,9 C 15,0 C 73 % 0 lf 1009,0 hPa 0,0 l/m 2 min 0 min 443 W/m 37,7 km/h (5 Bft) 97,87 %
20.10.2017 13:30 15,8 C 17,2 C 15,0 C 73 % 0 lf 1009,0 hPa 0,0 l/m 0 min 0 min 182 W/m 27,2 km/h (4 Bft) 97,87 %
20.10.2017 13:32 15,8 C 17,8 C 15,0 C 73 % 0 lf 1009,1 hPa 0,0 l/m 0 min 0 min 173 W/m 27,2 km/h (4 Bft) 98,00 %
20.10.2017 13:34 15,8 C 17,2 C 15,0 C 73 % 0 lf 1009,0 hPa 0,0 l/m 2 min 0 min 501 W/m 31,4 km/h (5 Bft) 94,44 %
20.10.2017 13:36 15,8 C 16,7 C 14,4 C 72 % 0 lf 1009,0 hPa 0,0 l/m 0 min 0 min 181 W/m 23,0 km/h (4 Bft) 97,87 %
20.10.2017 13:38 15,7 C 16,1 C 14,4 C 72 % 0 lf 1009,1 hPa 0,0 l/m 0 min 0 min 164 W/m 48,1 km/h (6 Bft) 97,83 %
20.10.2017 13:40 15,7 C 16,1 C 14,4 C 72 % 0 lf 1009,0 hPa 0,0 l/m 0 min 0 min 177 W/m 46,0 km/h (6 Bft) 100,00 %
20.10.2017 13:42 15,6 C 16,1 C 14,4 C 72 % 0 lf 1009,0 hPa 0,0 l/m 0 min 0 min 185 W/m 33,5 km/h (5 Bft) 93,62 %
20.10.2017 13:44 15,6 C 16,7 C 14,4 C 72 % 0 lf 1009,0 hPa 0,0 l/m 0 min 0 min 192 W/m 39,7 km/h (6 Bft) 97,87 %
20.10.2017 13:46 15,6 C 18,3 C 14,4 C 72 % 0 lf 1009,0 hPa 0,0 l/m 0 min 0 min 202 W/m 41,8 km/h (6 Bft) 95,74 %
20.10.2017 13:48 15,6 C 20,0 C 15,0 C 72 % 0 lf 1009,1 hPa 0,0 l/m 2 min 0 min 528 W/m 31,4 km/h (5 Bft) 97,87 %
20.10.2017 13:50 15,7 C 20,6 C 15,0 C 72 % 0 lf 1009,0 hPa 0,0 l/m 2 min 0 min 532 W/m 33,5 km/h (5 Bft) 95,65 %
20.10.2017 13:52 15,7 C 20,0 C 15,0 C 72 % 0 lf 1009,0 hPa 0,0 l/m 2 min 0 min 531 W/m 31,4 km/h (5 Bft) 95,74 %
20.10.2017 13:54 15,8 C 18,9 C 15,0 C 72 % 0 lf 1009,0 hPa 0,0 l/m 2 min 0 min 389 W/m 33,5 km/h (5 Bft) 97,87 %
20.10.2017 13:56 15,8 C 19,4 C 15,0 C 72 % 0 lf 1009,0 hPa 0,0 l/m 2 min 0 min 248 W/m 29,3 km/h (5 Bft) 97,87 %
20.10.2017 13:58 15,8 C 17,8 C 15,0 C 71 % 0 lf 1009,0 hPa 0,0 l/m 0 min 0 min 203 W/m 37,7 km/h (5 Bft) 97,87 %
20.10.2017 14:00 15,8 C 16,7 C 15,0 C 71 % 0 lf 1009,0 hPa 0,0 l/m 0 min 0 min 163 W/m 39,7 km/h (6 Bft) 93,62 %
20.10.2017 14:02 15,8 C 16,7 C 15,0 C 71 % 0 lf 1009,0 hPa 0,0 l/m 0 min 0 min 187 W/m 37,7 km/h (5 Bft) 97,83 %
20.10.2017 14:04 15,7 C 16,7 C 15,0 C 71 % 0 lf 1009,1 hPa 0,0 l/m 0 min 0 min 181 W/m 37,7 km/h (5 Bft) 95,74 %
20.10.2017 14:06 15,7 C 17,2 C 14,4 C 71 % 0 lf 1009,1 hPa 0,0 l/m 0 min 0 min 178 W/m 46,0 km/h (6 Bft) 97,87 %
20.10.2017 14:08 15,7 C 17,2 C 14,4 C 72 % 0 lf 1009,1 hPa 0,0 l/m 0 min 0 min 175 W/m 39,7 km/h (6 Bft) 95,74 %
20.10.2017 14:10 15,7 C 16,7 C 14,4 C 71 % 0 lf 1008,9 hPa 0,0 l/m 0 min 0 min 180 W/m 37,7 km/h (5 Bft) 97,87 %
20.10.2017 14:12 15,7 C 18,3 C 15,0 C 71 % 0 lf 1009,0 hPa 0,0 l/m 0 min 0 min 221 W/m 35,6 km/h (5 Bft) 93,48 %
20.10.2017 14:14 15,7 C 17,2 C 15,0 C 71 % 0 lf 1009,0 hPa 0,0 l/m 0 min 0 min 213 W/m 50,2 km/h (7 Bft) 97,87 %
20.10.2017 14:16 15,7 C 16,7 C 15,0 C 71 % 0 lf 1009,1 hPa 0,0 l/m 0 min 0 min 182 W/m 35,6 km/h (5 Bft) 100,00 %
20.10.2017 14:18 15,7 C 16,1 C 15,0 C 71 % 0 lf 1009,2 hPa 0,0 l/m 0 min 0 min 150 W/m 31,4 km/h (5 Bft) 97,87 %
20.10.2017 14:20 15,7 C 16,1 C 15,0 C 71 % 0 lf 1009,3 hPa 0,0 l/m 0 min 0 min 201 W/m 31,4 km/h (5 Bft) 100,00 %
20.10.2017 14:22 15,7 C 16,1 C 15,0 C 72 % 0 lf 1009,2 hPa 0,0 l/m 0 min 0 min 213 W/m 33,5 km/h (5 Bft) 97,87 %
20.10.2017 14:24 15,7 C 16,7 C 15,6 C 72 % 0 lf 1009,2 hPa 0,0 l/m 2 min 0 min 253 W/m 48,1 km/h (6 Bft) 100,00 %
20.10.2017 14:26 15,6 C 17,2 C 15,6 C 72 % 0 lf 1009,2 hPa 0,0 l/m 2 min 0 min 302 W/m 39,7 km/h (6 Bft) 97,87 %
20.10.2017 14:28 15,7 C 19,4 C 15,6 C 72 % 0 lf 1009,2 hPa 0,0 l/m 2 min 0 min 456 W/m 43,9 km/h (6 Bft) 100,00 %
20.10.2017 14:30 15,8 C 21,1 C 16,1 C 72 % 0 lf 1009,3 hPa 0,0 l/m 2 min 0 min 624 W/m 41,8 km/h (6 Bft) 100,00 %
20.10.2017 14:32 15,9 C 22,2 C 16,7 C 73 % 0 lf 1009,3 hPa 0,0 l/m 2 min 0 min 472 W/m 31,4 km/h (5 Bft) 97,87 %
20.10.2017 14:34 16,1 C 20,6 C 16,7 C 73 % 0 lf 1009,3 hPa 0,0 l/m 2 min 0 min 366 W/m 31,4 km/h (5 Bft) 97,87 %
20.10.2017 14:36 16,1 C 18,9 C 16,1 C 72 % 0 lf 1009,3 hPa 0,0 l/m 2 min 0 min 292 W/m 35,6 km/h (5 Bft) 95,65 %
20.10.2017 14:38 16,2 C 17,8 C 16,1 C 71 % 0 lf 1009,3 hPa 0,0 l/m 2 min 0 min 260 W/m 29,3 km/h (5 Bft) 100,00 %
20.10.2017 14:40 16,1 C 17,2 C 16,1 C 71 % 0 lf 1009,4 hPa 0,0 l/m 2 min 0 min 243 W/m 39,7 km/h (6 Bft) 100,00 %
20.10.2017 14:42 16,1 C 17,2 C 15,6 C 71 % 0 lf 1009,4 hPa 0,0 l/m 2 min 0 min 216 W/m 39,7 km/h (6 Bft) 100,00 %
20.10.2017 14:44 16,1 C 17,2 C 15,6 C 71 % 0 lf 1009,4 hPa 0,0 l/m 0 min 0 min 200 W/m 33,5 km/h (5 Bft) 100,00 %
20.10.2017 14:46 16,1 C 16,7 C 15,0 C 71 % 0 lf 1009,3 hPa 0,0 l/m 0 min 0 min 199 W/m 39,7 km/h (6 Bft) 97,87 %
20.10.2017 14:48 16,0 C 16,7 C 15,0 C 71 % 0 lf 1009,3 hPa 0,0 l/m 2 min 0 min 229 W/m 31,4 km/h (5 Bft) 97,83 %
20.10.2017 14:50 15,9 C 16,7 C 15,6 C 72 % 0 lf 1009,4 hPa 0,0 l/m 2 min 0 min 253 W/m 35,6 km/h (5 Bft) 97,87 %
20.10.2017 14:52 15,9 C 17,2 C 15,6 C 71 % 0 lf 1009,3 hPa 0,0 l/m 2 min 0 min 265 W/m 43,9 km/h (6 Bft) 100,00 %
20.10.2017 14:54 15,9 C 17,8 C 15,6 C 72 % 0 lf 1009,4 hPa 0,0 l/m 2 min 0 min 283 W/m 29,3 km/h (5 Bft) 100,00 %
20.10.2017 14:56 15,9 C 17,8 C 16,1 C 72 % 0 lf 1009,4 hPa 0,0 l/m 2 min 0 min 320 W/m 41,8 km/h (6 Bft) 97,87 %
20.10.2017 14:58 15,9 C 17,8 C 16,1 C 72 % 0 lf 1009,4 hPa 0,0 l/m 2 min 0 min 293 W/m 29,3 km/h (5 Bft) 97,87 %
20.10.2017 15:00 16,0 C 17,8 C 16,1 C 72 % 0 lf 1009,4 hPa 0,0 l/m 2 min 0 min 265 W/m 29,3 km/h (5 Bft) 93,48 %
20.10.2017 15:02 16,0 C 16,7 C 16,1 C 71 % 0 lf 1009,4 hPa 0,0 l/m 2 min 0 min 210 W/m 41,8 km/h (6 Bft) 95,74 %
20.10.2017 15:04 15,9 C 16,7 C 15,6 C 71 % 0 lf 1009,4 hPa 0,0 l/m 0 min 0 min 154 W/m 41,8 km/h (6 Bft) 95,74 %
20.10.2017 15:06 15,9 C 16,1 C 15,6 C 71 % 0 lf 1009,3 hPa 0,0 l/m 0 min 0 min 134 W/m 33,5 km/h (5 Bft) 95,74 %
20.10.2017 15:08 15,9 C 16,1 C 15,0 C 72 % 0 lf 1009,4 hPa 0,0 l/m 0 min 0 min 118 W/m 25,1 km/h (4 Bft) 95,83 %
20.10.2017 15:10 15,8 C 15,6 C 15,0 C 71 % 0 lf 1009,5 hPa 0,0 l/m 0 min 0 min 101 W/m 41,8 km/h (6 Bft) 95,74 %
20.10.2017 15:12 15,8 C 15,6 C 15,0 C 71 % 0 lf 1009,5 hPa 0,0 l/m 0 min 0 min 105 W/m 25,1 km/h (4 Bft) 93,48 %
20.10.2017 15:14 15,8 C 15,6 C 15,0 C 72 % 0 lf 1009,5 hPa 0,0 l/m 0 min 0 min 97 W/m 25,1 km/h (4 Bft) 95,74 %
20.10.2017 15:16 15,7 C 15,6 C 14,4 C 72 % 0 lf 1009,6 hPa 0,0 l/m 0 min 0 min 88 W/m 37,7 km/h (5 Bft) 91,49 %
20.10.2017 15:18 15,7 C 15,6 C 14,4 C 72 % 0 lf 1009,6 hPa 0,0 l/m 0 min 0 min 89 W/m 31,4 km/h (5 Bft) 95,74 %
20.10.2017 15:20 15,6 C 15,6 C 14,4 C 72 % 0 lf 1009,6 hPa 0,0 l/m 0 min 0 min 94 W/m 35,6 km/h (5 Bft) 93,62 %
20.10.2017 15:22 15,6 C 15,6 C 14,4 C 72 % 0 lf 1009,6 hPa 0,0 l/m 0 min 0 min 101 W/m 46,0 km/h (6 Bft) 95,65 %
20.10.2017 15:24 15,5 C 15,6 C 14,4 C 72 % 0 lf 1009,6 hPa 0,0 l/m 0 min 0 min 124 W/m 37,7 km/h (5 Bft) 95,74 %
20.10.2017 15:26 15,5 C 16,1 C 15,0 C 72 % 0 lf 1009,6 hPa 0,0 l/m 0 min 0 min 162 W/m 35,6 km/h (5 Bft) 93,62 %
20.10.2017 15:28 15,5 C 16,1 C 15,0 C 72 % 0 lf 1009,6 hPa 0,0 l/m 0 min 0 min 167 W/m 37,7 km/h (5 Bft) 95,74 %
20.10.2017 15:30 15,5 C 16,1 C 15,0 C 72 % 0 lf 1009,6 hPa 0,0 l/m 0 min 0 min 168 W/m 33,5 km/h (5 Bft) 95,74 %
20.10.2017 15:32 15,5 C 16,1 C 15,0 C 73 % 0 lf 1009,7 hPa 0,0 l/m 2 min 0 min 185 W/m 23,0 km/h (4 Bft) 91,49 %
20.10.2017 15:34 15,5 C 16,1 C 15,0 C 73 % 0 lf 1009,7 hPa 0,0 l/m 0 min 0 min 165 W/m 39,7 km/h (6 Bft) 95,65 %
20.10.2017 15:36 15,5 C 16,1 C 15,0 C 73 % 0 lf 1009,8 hPa 0,0 l/m 0 min 0 min 150 W/m 39,7 km/h (6 Bft) 93,62 %
20.10.2017 15:38 15,5 C 16,1 C 15,0 C 74 % 0 lf 1009,7 hPa 0,0 l/m 0 min 0 min 150 W/m 46,0 km/h (6 Bft) 93,62 %
20.10.2017 15:40 15,4 C 16,1 C 14,4 C 74 % 0 lf 1009,8 hPa 0,0 l/m 2 min 0 min 199 W/m 48,1 km/h (6 Bft) 95,74 %
20.10.2017 15:42 15,4 C 17,2 C 15,0 C 74 % 0 lf 1009,8 hPa 0,0 l/m 2 min 0 min 324 W/m 43,9 km/h (6 Bft) 89,36 %
20.10.2017 15:44 15,5 C 18,3 C 15,6 C 75 % 0 lf 1009,8 hPa 0,0 l/m 2 min 0 min 435 W/m 37,7 km/h (5 Bft) 97,87 %
20.10.2017 15:46 15,6 C 20,0 C 15,6 C 75 % 0 lf 1009,8 hPa 0,0 l/m 2 min 0 min 465 W/m 37,7 km/h (5 Bft) 95,65 %
20.10.2017 15:48 15,6 C 18,9 C 15,6 C 74 % 0 lf 1009,8 hPa 0,0 l/m 2 min 0 min 436 W/m 33,5 km/h (5 Bft) 95,74 %
20.10.2017 15:50 15,7 C 18,3 C 16,1 C 75 % 0 lf 1009,7 hPa 0,0 l/m 2 min 0 min 253 W/m 25,1 km/h (4 Bft) 93,62 %
20.10.2017 15:52 15,7 C 17,8 C 15,6 C 74 % 0 lf 1009,7 hPa 0,0 l/m 2 min 0 min 239 W/m 33,5 km/h (5 Bft) 95,74 %
20.10.2017 15:54 15,8 C 18,3 C 15,6 C 74 % 0 lf 1009,8 hPa 0,0 l/m 2 min 0 min 316 W/m 46,0 km/h (6 Bft) 95,74 %
20.10.2017 15:56 15,8 C 18,9 C 15,6 C 74 % 0 lf 1009,9 hPa 0,0 l/m 2 min 0 min 473 W/m 27,2 km/h (4 Bft) 95,74 %
20.10.2017 15:58 15,8 C 17,8 C 15,6 C 74 % 0 lf 1009,9 hPa 0,0 l/m 2 min 0 min 316 W/m 52,3 km/h (7 Bft) 93,48 %
20.10.2017 16:00 15,8 C 16,7 C 15,0 C 74 % 0 lf 1009,9 hPa 0,0 l/m 2 min 0 min 206 W/m 46,0 km/h (6 Bft) 95,74 %
20.10.2017 16:02 15,7 C 16,7 C 15,0 C 73 % 0 lf 1009,9 hPa 0,0 l/m 2 min 0 min 196 W/m 37,7 km/h (5 Bft) 93,75 %
20.10.2017 16:04 15,6 C 16,7 C 15,0 C 73 % 0 lf 1009,9 hPa 0,0 l/m 2 min 0 min 231 W/m 43,9 km/h (6 Bft) 97,87 %
20.10.2017 16:06 15,6 C 17,2 C 15,0 C 74 % 0 lf 1009,9 hPa 0,0 l/m 2 min 0 min 230 W/m 35,6 km/h (5 Bft) 95,74 %
20.10.2017 16:08 15,6 C 17,2 C 15,0 C 74 % 0 lf 1009,9 hPa 0,0 l/m 2 min 0 min 232 W/m 35,6 km/h (5 Bft) 97,87 %
20.10.2017 16:10 15,6 C 16,7 C 15,0 C 75 % 0 lf 1009,9 hPa 0,0 l/m 2 min 0 min 192 W/m 31,4 km/h (5 Bft) 91,30 %
20.10.2017 16:12 15,6 C 16,7 C 15,0 C 75 % 0 lf 1010,0 hPa 0,0 l/m 2 min 0 min 158 W/m 37,7 km/h (5 Bft) 95,74 %
20.10.2017 16:14 15,5 C 16,1 C 15,0 C 75 % 0 lf 1009,9 hPa 0,0 l/m 0 min 0 min 148 W/m 27,2 km/h (4 Bft) 95,74 %
20.10.2017 16:16 15,4 C 16,1 C 15,0 C 75 % 0 lf 1010,0 hPa 0,0 l/m 0 min 0 min 140 W/m 25,1 km/h (4 Bft) 93,62 %
20.10.2017 16:18 15,4 C 15,6 C 14,4 C 75 % 0 lf 1010,0 hPa 0,0 l/m 0 min 0 min 121 W/m 27,2 km/h (4 Bft) 95,74 %
20.10.2017 16:20 15,4 C 15,6 C 14,4 C 75 % 0 lf 1010,0 hPa 0,0 l/m 0 min 0 min 117 W/m 31,4 km/h (5 Bft) 95,74 %
20.10.2017 16:22 15,3 C 15,6 C 14,4 C 75 % 0 lf 1010,0 hPa 0,0 l/m 2 min 0 min 171 W/m 33,5 km/h (5 Bft) 93,48 %
20.10.2017 16:24 15,3 C 16,1 C 15,0 C 75 % 0 lf 1009,9 hPa 0,0 l/m 2 min 0 min 203 W/m 33,5 km/h (5 Bft) 95,74 %
20.10.2017 16:26 15,3 C 16,1 C 15,0 C 75 % 0 lf 1009,9 hPa 0,0 l/m 2 min 0 min 178 W/m 14,6 km/h (3 Bft) 93,62 %
20.10.2017 16:28 15,3 C 16,1 C 15,0 C 76 % 0 lf 1009,9 hPa 0,0 l/m 2 min 0 min 162 W/m 14,6 km/h (3 Bft) 95,74 %
20.10.2017 16:30 15,3 C 16,1 C 15,0 C 76 % 0 lf 1009,9 hPa 0,0 l/m 2 min 0 min 136 W/m 16,7 km/h (3 Bft) 95,74 %
20.10.2017 16:32 15,3 C 15,6 C 15,0 C 76 % 0 lf 1010,0 hPa 0,0 l/m 0 min 0 min 107 W/m 33,5 km/h (5 Bft) 100,00 %
20.10.2017 16:34 15,3 C 15,6 C 14,4 C 76 % 0 lf 1010,0 hPa 0,0 l/m 0 min 0 min 88 W/m 35,6 km/h (5 Bft) 97,87 %
20.10.2017 16:36 15,2 C 15,0 C 14,4 C 76 % 0 lf 1010,0 hPa 0,0 l/m 0 min 0 min 85 W/m 43,9 km/h (6 Bft) 97,87 %
20.10.2017 16:38 15,2 C 15,0 C 13,9 C 76 % 0 lf 1010,1 hPa 0,0 l/m 0 min 0 min 72 W/m 25,1 km/h (4 Bft) 97,87 %
20.10.2017 16:40 15,2 C 15,0 C 13,9 C 76 % 0 lf 1010,0 hPa 0,0 l/m 0 min 0 min 58 W/m 31,4 km/h (5 Bft) 97,87 %
20.10.2017 16:42 15,1 C 15,0 C 13,9 C 76 % 0 lf 1010,1 hPa 0,0 l/m 0 min 0 min 52 W/m 27,2 km/h (4 Bft) 97,87 %
20.10.2017 16:44 15,1 C 14,4 C 13,9 C 76 % 0 lf 1010,0 hPa 0,0 l/m 0 min 0 min 46 W/m 33,5 km/h (5 Bft) 95,65 %
20.10.2017 16:46 15,0 C 14,4 C 13,3 C 76 % 0 lf 1010,1 hPa 0,0 l/m 0 min 0 min 41 W/m 33,5 km/h (5 Bft) 97,87 %
20.10.2017 16:48 14,9 C 14,4 C 13,3 C 77 % 0 lf 1010,1 hPa 0,0 l/m 0 min 0 min 37 W/m 33,5 km/h (5 Bft) 97,87 %
20.10.2017 16:50 14,8 C 14,4 C 13,3 C 77 % 0 lf 1010,0 hPa 0,0 l/m 0 min 0 min 34 W/m 25,1 km/h (4 Bft) 95,74 %
20.10.2017 16:52 14,8 C 14,4 C 13,3 C 77 % 0 lf 1010,1 hPa 0,0 l/m 0 min 0 min 30 W/m 29,3 km/h (5 Bft) 97,87 %
20.10.2017 16:54 14,8 C 14,4 C 13,3 C 77 % 0 lf 1010,2 hPa 0,0 l/m 0 min 0 min 28 W/m 29,3 km/h (5 Bft) 97,87 %
20.10.2017 16:56 14,7 C 14,4 C 13,3 C 77 % 0 lf 1010,1 hPa 0,0 l/m 0 min 0 min 29 W/m 29,3 km/h (5 Bft) 97,83 %
20.10.2017 16:58 14,7 C 14,4 C 13,3 C 77 % 0 lf 1010,1 hPa 0,0 l/m 0 min 0 min 31 W/m 33,5 km/h (5 Bft) 97,87 %
20.10.2017 17:00 14,7 C 14,4 C 13,3 C 77 % 0 lf 1010,2 hPa 0,0 l/m 0 min 0 min 33 W/m 20,9 km/h (4 Bft) 97,87 %
20.10.2017 17:02 14,6 C 14,4 C 13,3 C 77 % 0 lf 1010,4 hPa 0,0 l/m 0 min 0 min 30 W/m 31,4 km/h (5 Bft) 100,00 %
20.10.2017 17:04 14,6 C 14,4 C 13,3 C 78 % 0 lf 1010,3 hPa 0,0 l/m 0 min 0 min 30 W/m 20,9 km/h (4 Bft) 97,87 %
20.10.2017 17:06 14,6 C 14,4 C 13,3 C 78 % 0 lf 1010,3 hPa 0,0 l/m 0 min 0 min 32 W/m 23,0 km/h (4 Bft) 100,00 %
20.10.2017 17:08 14,6 C 14,4 C 13,3 C 78 % 0 lf 1010,3 hPa 0,0 l/m 0 min 0 min 33 W/m 23,0 km/h (4 Bft) 93,48 %
20.10.2017 17:10 14,5 C 14,4 C 13,3 C 78 % 0 lf 1010,3 hPa 0,0 l/m 0 min 0 min 33 W/m 35,6 km/h (5 Bft) 97,87 %
20.10.2017 17:12 14,5 C 14,4 C 13,3 C 78 % 0 lf 1010,3 hPa 0,0 l/m 0 min 0 min 33 W/m 29,3 km/h (5 Bft) 97,87 %
20.10.2017 17:14 14,4 C 14,4 C 13,3 C 78 % 0 lf 1010,3 hPa 0,0 l/m 0 min 0 min 31 W/m 23,0 km/h (4 Bft) 95,74 %
20.10.2017 17:16 14,4 C 14,4 C 13,3 C 78 % 0 lf 1010,3 hPa 0,0 l/m 0 min 0 min 30 W/m 35,6 km/h (5 Bft) 97,87 %
20.10.2017 17:18 14,4 C 14,4 C 13,3 C 78 % 0 lf 1010,4 hPa 0,0 l/m 0 min 0 min 30 W/m 20,9 km/h (4 Bft) 97,87 %
20.10.2017 17:20 14,4 C 14,4 C 13,3 C 78 % 0 lf 1010,4 hPa 0,0 l/m 0 min 0 min 30 W/m 33,5 km/h (5 Bft) 97,83 %
20.10.2017 17:22 14,4 C 14,4 C 13,3 C 78 % 0 lf 1010,5 hPa 0,0 l/m 0 min 0 min 27 W/m 25,1 km/h (4 Bft) 97,87 %
20.10.2017 17:24 14,4 C 14,4 C 13,3 C 78 % 0 lf 1010,5 hPa 0,0 l/m 0 min 0 min 22 W/m 25,1 km/h (4 Bft) 97,87 %
20.10.2017 17:26 14,4 C 14,4 C 13,3 C 78 % 0 lf 1010,5 hPa 0,0 l/m 0 min 0 min 20 W/m 46,0 km/h (6 Bft) 95,74 %
20.10.2017 17:28 14,4 C 14,4 C 13,3 C 78 % 0 lf 1010,4 hPa 0,0 l/m 0 min 0 min 21 W/m 39,7 km/h (6 Bft) 95,74 %
20.10.2017 17:30 14,4 C 14,4 C 13,3 C 77 % 0 lf 1010,5 hPa 0,0 l/m 0 min 0 min 21 W/m 33,5 km/h (5 Bft) 97,87 %
20.10.2017 17:32 14,4 C 14,4 C 13,3 C 77 % 0 lf 1010,6 hPa 0,0 l/m 0 min 0 min 19 W/m 39,7 km/h (6 Bft) 97,87 %
20.10.2017 17:34 14,4 C 14,4 C 13,3 C 77 % 0 lf 1010,6 hPa 0,0 l/m 0 min 0 min 17 W/m 35,6 km/h (5 Bft) 95,74 %
20.10.2017 17:36 14,4 C 14,4 C 12,8 C 77 % 0 lf 1010,6 hPa 0,0 l/m 0 min 0 min 16 W/m 23,0 km/h (4 Bft) 97,87 %
20.10.2017 17:38 14,4 C 14,4 C 12,8 C 77 % 0 lf 1010,6 hPa 0,0 l/m 0 min 0 min 15 W/m 31,4 km/h (5 Bft) 97,87 %
20.10.2017 17:40 14,4 C 14,4 C 12,8 C 77 % 0 lf 1010,7 hPa 0,0 l/m 0 min 0 min 14 W/m 29,3 km/h (5 Bft) 100,00 %
20.10.2017 17:42 14,4 C 14,4 C 12,8 C 77 % 0 lf 1010,7 hPa 0,0 l/m 0 min 0 min 13 W/m 35,6 km/h (5 Bft) 94,83 %
20.10.2017 17:44 14,4 C 14,4 C 12,8 C 77 % 0 lf 1010,7 hPa 0,0 l/m 0 min 0 min 14 W/m 39,7 km/h (6 Bft) 97,87 %
20.10.2017 17:46 14,4 C 14,4 C 12,8 C 77 % 0 lf 1010,7 hPa 0,0 l/m 0 min 0 min 14 W/m 41,8 km/h (6 Bft) 97,87 %
20.10.2017 17:48 14,4 C 14,4 C 12,8 C 77 % 0 lf 1010,7 hPa 0,0 l/m 0 min 0 min 16 W/m 23,0 km/h (4 Bft) 100,00 %
20.10.2017 17:50 14,4 C 14,4 C 12,8 C 77 % 0 lf 1010,7 hPa 0,0 l/m 0 min 0 min 13 W/m 23,0 km/h (4 Bft) 100,00 %
20.10.2017 17:52 14,4 C 14,4 C 12,8 C 77 % 0 lf 1010,8 hPa 0,0 l/m 0 min 0 min 12 W/m 37,7 km/h (5 Bft) 100,00 %
20.10.2017 17:54 14,3 C 14,4 C 12,8 C 77 % 0 lf 1010,9 hPa 0,0 l/m 0 min 0 min 12 W/m 31,4 km/h (5 Bft) 100,00 %
20.10.2017 17:56 14,3 C 14,4 C 12,8 C 77 % 0 lf 1010,9 hPa 0,0 l/m 0 min 0 min 12 W/m 31,4 km/h (5 Bft) 100,00 %
20.10.2017 17:58 14,3 C 13,9 C 12,8 C 77 % 0 lf 1010,9 hPa 0,0 l/m 0 min 0 min 12 W/m 23,0 km/h (4 Bft) 100,00 %
20.10.2017 18:00 14,3 C 13,9 C 12,8 C 77 % 0 lf 1010,9 hPa 0,0 l/m 0 min 0 min 11 W/m 23,0 km/h (4 Bft) 100,00 %
20.10.2017 18:02 14,3 C 13,9 C 12,8 C 77 % 0 lf 1011,0 hPa 0,0 l/m 0 min 0 min 11 W/m 33,5 km/h (5 Bft) 95,74 %
20.10.2017 18:04 14,3 C 13,9 C 12,8 C 76 % 0 lf 1010,9 hPa 0,0 l/m 0 min 0 min 11 W/m 29,3 km/h (5 Bft) 97,87 %
20.10.2017 18:06 14,3 C 13,9 C 12,8 C 77 % 0 lf 1010,9 hPa 0,0 l/m 0 min 0 min 11 W/m 31,4 km/h (5 Bft) 100,00 %
20.10.2017 18:10 14,3 C 13,9 C 12,8 C 76 % 0 lf 1010,9 hPa 0,0 l/m 0 min 0 min 11 W/m 37,7 km/h (5 Bft) 100,00 %
20.10.2017 18:12 14,2 C 13,9 C 12,8 C 76 % 0 lf 1010,9 hPa 0,0 l/m 0 min 0 min 11 W/m 33,5 km/h (5 Bft) 100,00 %
20.10.2017 18:14 14,2 C 13,9 C 12,8 C 76 % 0 lf 1010,9 hPa 0,0 l/m 0 min 0 min 9 W/m 29,3 km/h (5 Bft) 100,00 %
20.10.2017 18:16 14,2 C 13,9 C 12,8 C 76 % 0 lf 1011,0 hPa 0,0 l/m 0 min 0 min 9 W/m 23,0 km/h (4 Bft) 97,87 %
20.10.2017 18:18 14,2 C 13,9 C 12,8 C 76 % 0 lf 1010,9 hPa 0,0 l/m 0 min 0 min 7 W/m 29,3 km/h (5 Bft) 100,00 %
20.10.2017 18:20 14,2 C 13,9 C 12,8 C 76 % 0 lf 1010,9 hPa 0,0 l/m 0 min 0 min 7 W/m 31,4 km/h (5 Bft) 97,87 %
20.10.2017 18:22 14,2 C 13,9 C 12,8 C 76 % 0 lf 1010,9 hPa 0,0 l/m 0 min 0 min 6 W/m 23,0 km/h (4 Bft) 100,00 %
20.10.2017 18:24 14,2 C 13,9 C 12,8 C 76 % 0 lf 1011,0 hPa 0,0 l/m 0 min 0 min 5 W/m 29,3 km/h (5 Bft) 97,87 %
20.10.2017 18:26 14,2 C 13,9 C 12,8 C 76 % 0 lf 1010,9 hPa 0,0 l/m 0 min 0 min 5 W/m 25,1 km/h (4 Bft) 95,74 %
20.10.2017 18:28 14,2 C 13,9 C 12,8 C 76 % 0 lf 1011,0 hPa 0,0 l/m 0 min 0 min 3 W/m 27,2 km/h (4 Bft) 95,65 %
20.10.2017 18:30 14,2 C 13,9 C 12,8 C 76 % 0 lf 1011,0 hPa 0,0 l/m 0 min 0 min 0 W/m 29,3 km/h (5 Bft) 97,87 %
20.10.2017 18:32 14,2 C 13,9 C 12,8 C 76 % 0 lf 1011,0 hPa 0,0 l/m 0 min 0 min 0 W/m 27,2 km/h (4 Bft) 95,74 %
20.10.2017 18:34 14,2 C 13,9 C 12,8 C 76 % 0 lf 1011,1 hPa 0,0 l/m 0 min 0 min 0 W/m 31,4 km/h (5 Bft) 95,74 %
20.10.2017 18:36 14,2 C 13,9 C 12,8 C 76 % 0 lf 1011,0 hPa 0,0 l/m 0 min 0 min 0 W/m 23,0 km/h (4 Bft) 97,87 %
20.10.2017 18:38 14,2 C 13,9 C 12,8 C 75 % 0 lf 1011,1 hPa 0,0 l/m 0 min 0 min 0 W/m 23,0 km/h (4 Bft) 95,74 %
20.10.2017 18:40 14,2 C 13,9 C 12,8 C 76 % 0 lf 1011,0 hPa 0,0 l/m 0 min 0 min 0 W/m 16,7 km/h (3 Bft) 95,65 %
20.10.2017 18:42 14,2 C 13,9 C 12,8 C 76 % 0 lf 1011,0 hPa 0,0 l/m 0 min 0 min 0 W/m 20,9 km/h (4 Bft) 95,74 %
20.10.2017 18:44 14,2 C 13,9 C 12,8 C 76 % 0 lf 1011,2 hPa 0,0 l/m 0 min 0 min 0 W/m 25,1 km/h (4 Bft) 93,62 %
20.10.2017 18:46 14,2 C 13,9 C 12,8 C 76 % 0 lf 1011,1 hPa 0,0 l/m 0 min 0 min 0 W/m 25,1 km/h (4 Bft) 95,74 %
20.10.2017 18:48 14,2 C 13,9 C 12,8 C 76 % 0 lf 1011,4 hPa 0,0 l/m 0 min 0 min 0 W/m 33,5 km/h (5 Bft) 93,62 %
20.10.2017 18:50 14,2 C 13,9 C 12,8 C 75 % 0 lf 1011,1 hPa 0,0 l/m 0 min 0 min 0 W/m 29,3 km/h (5 Bft) 91,49 %
20.10.2017 18:52 14,2 C 13,9 C 12,8 C 75 % 0 lf 1011,2 hPa 0,0 l/m 0 min 0 min 0 W/m 18,8 km/h (3 Bft) 93,48 %
20.10.2017 18:54 14,2 C 13,9 C 12,8 C 75 % 0 lf 1011,3 hPa 0,0 l/m 0 min 0 min 0 W/m 20,9 km/h (4 Bft) 87,23 %
20.10.2017 18:56 14,2 C 13,9 C 12,8 C 75 % 0 lf 1011,3 hPa 0,0 l/m 0 min 0 min 0 W/m 20,9 km/h (4 Bft) 93,62 %
20.10.2017 18:58 14,2 C 13,9 C 12,8 C 75 % 0 lf 1011,3 hPa 0,0 l/m 0 min 0 min 0 W/m 39,7 km/h (6 Bft) 93,62 %
20.10.2017 19:00 14,2 C 13,9 C 12,8 C 75 % 0 lf 1011,4 hPa 0,0 l/m 0 min 0 min 0 W/m 25,1 km/h (4 Bft) 93,62 %
20.10.2017 19:02 14,2 C 13,9 C 12,8 C 75 % 0 lf 1011,3 hPa 0,0 l/m 0 min 0 min 0 W/m 23,0 km/h (4 Bft) 91,49 %
20.10.2017 19:04 14,2 C 13,9 C 12,8 C 75 % 0 lf 1011,4 hPa 0,0 l/m 0 min 0 min 0 W/m 23,0 km/h (4 Bft) 93,48 %
20.10.2017 19:06 14,2 C 13,9 C 12,8 C 75 % 0 lf 1011,4 hPa 0,0 l/m 0 min 0 min 0 W/m 27,2 km/h (4 Bft) 82,98 %
20.10.2017 19:08 14,2 C 13,9 C 12,8 C 75 % 0 lf 1011,4 hPa 0,0 l/m 0 min 0 min 0 W/m 33,5 km/h (5 Bft) 87,23 %
20.10.2017 19:10 14,2 C 13,9 C 12,8 C 75 % 0 lf 1011,4 hPa 0,0 l/m 0 min 0 min 0 W/m 18,8 km/h (3 Bft) 91,49 %
20.10.2017 19:12 14,2 C 13,9 C 12,8 C 75 % 0 lf 1011,4 hPa 0,0 l/m 0 min 0 min 0 W/m 18,8 km/h (3 Bft) 91,49 %
20.10.2017 19:14 14,2 C 13,9 C 12,8 C 75 % 0 lf 1011,4 hPa 0,0 l/m 0 min 0 min 0 W/m 31,4 km/h (5 Bft) 87,23 %
20.10.2017 19:16 14,2 C 13,9 C 12,8 C 75 % 0 lf 1011,5 hPa 0,0 l/m 0 min 0 min 0 W/m 23,0 km/h (4 Bft) 91,30 %
20.10.2017 19:18 14,2 C 13,9 C 12,8 C 75 % 0 lf 1011,6 hPa 0,0 l/m 0 min 0 min 0 W/m 29,3 km/h (5 Bft) 91,49 %
20.10.2017 19:20 14,2 C 13,9 C 12,8 C 75 % 0 lf 1011,6 hPa 0,0 l/m 0 min 0 min 0 W/m 20,9 km/h (4 Bft) 91,49 %
20.10.2017 19:22 14,2 C 13,9 C 12,8 C 75 % 0 lf 1011,5 hPa 0,0 l/m 0 min 0 min 0 W/m 20,9 km/h (4 Bft) 91,49 %
20.10.2017 19:24 14,2 C 13,9 C 12,8 C 75 % 0 lf 1011,5 hPa 0,0 l/m 0 min 0 min 0 W/m 20,9 km/h (4 Bft) 89,36 %
20.10.2017 19:26 14,2 C 13,9 C 12,2 C 75 % 0 lf 1011,6 hPa 0,0 l/m 0 min 0 min 0 W/m 31,4 km/h (5 Bft) 89,13 %
20.10.2017 19:28 14,2 C 13,9 C 12,8 C 75 % 0 lf 1011,6 hPa 0,0 l/m 0 min 0 min 0 W/m 29,3 km/h (5 Bft) 93,62 %
20.10.2017 19:30 14,2 C 13,9 C 12,8 C 75 % 0 lf 1011,6 hPa 0,0 l/m 0 min 0 min 0 W/m 27,2 km/h (4 Bft) 95,74 %
20.10.2017 19:32 14,2 C 13,9 C 12,2 C 75 % 0 lf 1011,6 hPa 0,0 l/m 0 min 0 min 0 W/m 20,9 km/h (4 Bft) 95,74 %
20.10.2017 19:34 14,2 C 13,9 C 12,2 C 75 % 0 lf 1011,6 hPa 0,0 l/m 0 min 0 min 0 W/m 23,0 km/h (4 Bft) 95,74 %
20.10.2017 19:36 14,2 C 13,9 C 12,2 C 75 % 0 lf 1011,6 hPa 0,0 l/m 0 min 0 min 0 W/m 18,8 km/h (3 Bft) 93,62 %
20.10.2017 19:38 14,2 C 13,9 C 12,2 C 75 % 0 lf 1011,6 hPa 0,0 l/m 0 min 0 min 0 W/m 20,9 km/h (4 Bft) 95,65 %
20.10.2017 19:40 14,1 C 13,9 C 12,2 C 75 % 0 lf 1011,6 hPa 0,0 l/m 0 min 0 min 0 W/m 35,6 km/h (5 Bft) 95,74 %
20.10.2017 19:42 14,1 C 13,9 C 12,2 C 75 % 0 lf 1011,6 hPa 0,0 l/m 0 min 0 min 0 W/m 33,5 km/h (5 Bft) 97,87 %
20.10.2017 19:44 14,1 C 13,9 C 12,2 C 75 % 0 lf 1011,7 hPa 0,0 l/m 0 min 0 min 0 W/m 18,8 km/h (3 Bft) 95,74 %
20.10.2017 19:46 14,1 C 13,3 C 12,2 C 75 % 0 lf 1011,6 hPa 0,0 l/m 0 min 0 min 0 W/m 18,8 km/h (3 Bft) 100,00 %
20.10.2017 19:48 14,0 C 13,3 C 12,2 C 75 % 0 lf 1011,8 hPa 0,0 l/m 0 min 0 min 0 W/m 20,9 km/h (4 Bft) 97,87 %
20.10.2017 19:50 14,0 C 13,3 C 11,7 C 75 % 0 lf 1011,8 hPa 0,0 l/m 0 min 0 min 0 W/m 12,6 km/h (3 Bft) 100,00 %
20.10.2017 19:52 13,9 C 13,3 C 11,7 C 75 % 0 lf 1011,8 hPa 0,0 l/m 0 min 0 min 0 W/m 23,0 km/h (4 Bft) 100,00 %
20.10.2017 19:54 13,9 C 13,3 C 11,7 C 75 % 0 lf 1011,8 hPa 0,0 l/m 0 min 0 min 0 W/m 8,4 km/h (2 Bft) 100,00 %
20.10.2017 19:56 13,9 C 13,3 C 11,7 C 75 % 0 lf 1011,8 hPa 0,0 l/m 0 min 0 min 0 W/m 16,7 km/h (3 Bft) 100,00 %
20.10.2017 19:58 13,9 C 13,3 C 11,7 C 75 % 0 lf 1011,8 hPa 0,0 l/m 0 min 0 min 0 W/m 20,9 km/h (4 Bft) 95,74 %
20.10.2017 20:00 13,8 C 13,3 C 12,2 C 75 % 0 lf 1011,8 hPa 0,0 l/m 0 min 0 min 0 W/m 18,8 km/h (3 Bft) 100,00 %
20.10.2017 20:02 13,8 C 13,3 C 11,7 C 75 % 0 lf 1011,9 hPa 0,0 l/m 0 min 0 min 0 W/m 23,0 km/h (4 Bft) 100,00 %
20.10.2017 20:04 13,8 C 13,3 C 11,7 C 75 % 0 lf 1011,9 hPa 0,0 l/m 0 min 0 min 0 W/m 20,9 km/h (4 Bft) 97,87 %
20.10.2017 20:06 13,8 C 13,3 C 11,7 C 75 % 0 lf 1011,9 hPa 0,0 l/m 0 min 0 min 0 W/m 16,7 km/h (3 Bft) 100,00 %
20.10.2017 20:08 13,8 C 13,3 C 11,7 C 75 % 0 lf 1011,9 hPa 0,0 l/m 0 min 0 min 0 W/m 14,6 km/h (3 Bft) 100,00 %
20.10.2017 20:10 13,8 C 13,3 C 11,7 C 75 % 0 lf 1011,9 hPa 0,0 l/m 0 min 0 min 0 W/m 16,7 km/h (3 Bft) 100,00 %
20.10.2017 20:12 13,7 C 13,3 C 11,7 C 75 % 0 lf 1011,9 hPa 0,0 l/m 0 min 0 min 0 W/m 23,0 km/h (4 Bft) 97,87 %
20.10.2017 20:14 13,7 C 12,8 C 11,7 C 75 % 0 lf 1012,0 hPa 0,0 l/m 0 min 0 min 0 W/m 14,6 km/h (3 Bft) 100,00 %
20.10.2017 20:16 13,7 C 12,8 C 11,7 C 75 % 0 lf 1011,9 hPa 0,0 l/m 0 min 0 min 0 W/m 14,6 km/h (3 Bft) 97,87 %
20.10.2017 20:18 13,6 C 12,8 C 11,1 C 76 % 0 lf 1011,9 hPa 0,0 l/m 0 min 0 min 0 W/m 18,8 km/h (3 Bft) 100,00 %
20.10.2017 20:21 13,6 C 12,8 C 11,7 C 76 % 0 lf 1012,1 hPa 0,0 l/m 0 min 0 min 0 W/m 20,9 km/h (4 Bft) 100,00 %
20.10.2017 20:22 13,6 C 12,8 C 11,7 C 76 % 0 lf 1012,0 hPa 0,0 l/m 0 min 0 min 0 W/m 10,5 km/h (2 Bft) 100,00 %
20.10.2017 20:24 13,5 C 12,8 C 11,7 C 76 % 0 lf 1012,0 hPa 0,0 l/m 0 min 0 min 0 W/m 12,6 km/h (3 Bft) 100,00 %
20.10.2017 20:28 13,4 C 12,8 C 11,7 C 76 % 0 lf 1012,1 hPa 0,0 l/m 0 min 0 min 0 W/m 20,9 km/h (4 Bft) 96,47 %
20.10.2017 20:30 13,4 C 12,8 C 11,7 C 76 % 0 lf 1012,1 hPa 0,0 l/m 0 min 0 min 0 W/m 16,7 km/h (3 Bft) 98,15 %
20.10.2017 20:34 13,4 C 12,8 C 11,1 C 76 % 0 lf 1012,1 hPa 0,0 l/m 0 min 0 min 0 W/m 14,6 km/h (3 Bft) 95,65 %
20.10.2017 20:36 13,4 C 12,8 C 11,7 C 76 % 0 lf 1012,0 hPa 0,0 l/m 0 min 0 min 0 W/m 20,9 km/h (4 Bft) 100,00 %
20.10.2017 20:40 13,3 C 12,8 C 11,7 C 76 % 0 lf 1012,1 hPa 0,0 l/m 0 min 0 min 0 W/m 18,8 km/h (3 Bft) 97,85 %
20.10.2017 20:42 13,3 C 13,3 C 11,7 C 76 % 0 lf 1012,0 hPa 0,0 l/m 0 min 0 min 0 W/m 23,0 km/h (4 Bft) 97,87 %
20.10.2017 20:44 13,3 C 13,3 C 11,7 C 76 % 0 lf 1012,0 hPa 0,0 l/m 0 min 0 min 0 W/m 20,9 km/h (4 Bft) 95,74 %
20.10.2017 20:46 13,3 C 13,3 C 11,7 C 76 % 0 lf 1012,0 hPa 0,0 l/m 0 min 0 min 0 W/m 18,8 km/h (3 Bft) 100,00 %
20.10.2017 20:48 13,3 C 13,3 C 11,7 C 76 % 0 lf 1012,0 hPa 0,0 l/m 0 min 0 min 0 W/m 18,8 km/h (3 Bft) 95,74 %
20.10.2017 20:50 13,3 C 13,3 C 11,7 C 76 % 0 lf 1012,0 hPa 0,0 l/m 0 min 0 min 0 W/m 23,0 km/h (4 Bft) 96,55 %
20.10.2017 20:52 13,3 C 13,3 C 11,7 C 76 % 0 lf 1012,1 hPa 0,0 l/m 0 min 0 min 0 W/m 20,9 km/h (4 Bft) 94,29 %
20.10.2017 20:54 13,3 C 13,3 C 11,7 C 75 % 0 lf 1012,0 hPa 0,0 l/m 0 min 0 min 0 W/m 12,6 km/h (3 Bft) 97,87 %
20.10.2017 20:56 13,3 C 13,3 C 11,7 C 75 % 0 lf 1012,1 hPa 0,0 l/m 0 min 0 min 0 W/m 23,0 km/h (4 Bft) 97,87 %
20.10.2017 20:58 13,3 C 13,3 C 11,7 C 75 % 0 lf 1012,1 hPa 0,0 l/m 0 min 0 min 0 W/m 20,9 km/h (4 Bft) 95,74 %
20.10.2017 21:00 13,4 C 13,3 C 11,7 C 75 % 0 lf 1012,1 hPa 0,0 l/m 0 min 0 min 0 W/m 23,0 km/h (4 Bft) 100,00 %
20.10.2017 21:02 13,4 C 13,3 C 11,7 C 75 % 0 lf 1012,1 hPa 0,0 l/m 0 min 0 min 0 W/m 25,1 km/h (4 Bft) 93,48 %
20.10.2017 21:04 13,4 C 13,3 C 11,7 C 75 % 0 lf 1012,1 hPa 0,0 l/m 0 min 0 min 0 W/m 27,2 km/h (4 Bft) 95,74 %
20.10.2017 21:06 13,4 C 13,3 C 12,2 C 75 % 0 lf 1012,1 hPa 0,0 l/m 0 min 0 min 0 W/m 25,1 km/h (4 Bft) 95,74 %
20.10.2017 21:08 13,4 C 13,3 C 12,2 C 74 % 0 lf 1012,1 hPa 0,0 l/m 0 min 0 min 0 W/m 16,7 km/h (3 Bft) 95,74 %
20.10.2017 21:10 13,4 C 13,3 C 11,7 C 74 % 0 lf 1012,2 hPa 0,0 l/m 0 min 0 min 0 W/m 23,0 km/h (4 Bft) 97,87 %
20.10.2017 21:12 13,4 C 13,3 C 11,7 C 74 % 0 lf 1012,2 hPa 0,0 l/m 0 min 0 min 0 W/m 23,0 km/h (4 Bft) 93,62 %
20.10.2017 21:14 13,4 C 13,3 C 11,7 C 74 % 0 lf 1012,3 hPa 0,0 l/m 0 min 0 min 0 W/m 27,2 km/h (4 Bft) 97,83 %
20.10.2017 21:16 13,4 C 13,3 C 11,7 C 74 % 0 lf 1012,3 hPa 0,0 l/m 0 min 0 min 0 W/m 31,4 km/h (5 Bft) 93,62 %
20.10.2017 21:18 13,4 C 13,3 C 11,7 C 74 % 0 lf 1012,3 hPa 0,0 l/m 0 min 0 min 0 W/m 31,4 km/h (5 Bft) 94,44 %
20.10.2017 21:20 13,4 C 13,3 C 11,7 C 73 % 0 lf 1012,4 hPa 0,0 l/m 0 min 0 min 0 W/m 31,4 km/h (5 Bft) 93,62 %
20.10.2017 21:22 13,4 C 13,3 C 11,7 C 73 % 0 lf 1012,4 hPa 0,0 l/m 0 min 0 min 0 W/m 20,9 km/h (4 Bft) 95,74 %
20.10.2017 21:24 13,4 C 13,3 C 11,7 C 73 % 0 lf 1012,4 hPa 0,0 l/m 0 min 0 min 0 W/m 20,9 km/h (4 Bft) 93,62 %
20.10.2017 21:26 13,4 C 13,3 C 11,7 C 73 % 0 lf 1012,3 hPa 0,0 l/m 0 min 0 min 0 W/m 18,8 km/h (3 Bft) 95,74 %
20.10.2017 21:28 13,4 C 12,8 C 11,7 C 73 % 0 lf 1012,4 hPa 0,0 l/m 0 min 0 min 0 W/m 18,8 km/h (3 Bft) 97,83 %
20.10.2017 21:30 13,4 C 12,8 C 11,7 C 73 % 0 lf 1012,4 hPa 0,0 l/m 0 min 0 min 0 W/m 16,7 km/h (3 Bft) 97,87 %
20.10.2017 21:32 13,4 C 12,8 C 11,1 C 74 % 0 lf 1012,5 hPa 0,0 l/m 0 min 0 min 0 W/m 25,1 km/h (4 Bft) 89,36 %
20.10.2017 21:34 13,3 C 12,8 C 11,7 C 74 % 0 lf 1012,4 hPa 0,0 l/m 0 min 0 min 0 W/m 18,8 km/h (3 Bft) 93,62 %
20.10.2017 21:36 13,3 C 12,8 C 11,7 C 74 % 0 lf 1012,4 hPa 0,0 l/m 0 min 0 min 0 W/m 16,7 km/h (3 Bft) 91,49 %
20.10.2017 21:38 13,3 C 12,8 C 11,7 C 74 % 0 lf 1012,5 hPa 0,0 l/m 0 min 0 min 0 W/m 20,9 km/h (4 Bft) 93,48 %
20.10.2017 21:40 13,3 C 12,8 C 11,7 C 74 % 0 lf 1012,5 hPa 0,0 l/m 0 min 0 min 0 W/m 25,1 km/h (4 Bft) 93,62 %
20.10.2017 21:42 13,3 C 12,8 C 11,7 C 74 % 0 lf 1012,5 hPa 0,0 l/m 0 min 0 min 0 W/m 27,2 km/h (4 Bft) 93,62 %
20.10.2017 21:44 13,3 C 12,8 C 11,7 C 74 % 0 lf 1012,5 hPa 0,0 l/m 0 min 0 min 0 W/m 18,8 km/h (3 Bft) 91,49 %
20.10.2017 21:46 13,3 C 12,8 C 11,7 C 74 % 0 lf 1012,5 hPa 0,0 l/m 0 min 0 min 0 W/m 23,0 km/h (4 Bft) 89,36 %
20.10.2017 21:48 13,3 C 12,8 C 11,7 C 74 % 0 lf 1012,5 hPa 0,0 l/m 0 min 0 min 0 W/m 16,7 km/h (3 Bft) 93,62 %
20.10.2017 21:50 13,3 C 12,8 C 11,7 C 74 % 0 lf 1012,6 hPa 0,0 l/m 0 min 0 min 0 W/m 18,8 km/h (3 Bft) 91,30 %
20.10.2017 21:52 13,3 C 12,8 C 11,7 C 74 % 0 lf 1012,6 hPa 0,0 l/m 0 min 0 min 0 W/m 20,9 km/h (4 Bft) 91,49 %
20.10.2017 21:54 13,3 C 12,8 C 11,7 C 74 % 0 lf 1012,6 hPa 0,0 l/m 0 min 0 min 0 W/m 14,6 km/h (3 Bft) 95,74 %
20.10.2017 21:56 13,3 C 12,8 C 11,1 C 74 % 0 lf 1012,6 hPa 0,0 l/m 0 min 0 min 0 W/m 18,8 km/h (3 Bft) 91,49 %
20.10.2017 21:58 13,2 C 12,8 C 11,1 C 74 % 0 lf 1012,6 hPa 0,0 l/m 0 min 0 min 0 W/m 23,0 km/h (4 Bft) 91,49 %
20.10.2017 22:00 13,2 C 12,2 C 11,1 C 74 % 0 lf 1012,6 hPa 0,0 l/m 0 min 0 min 0 W/m 14,6 km/h (3 Bft) 90,00 %
20.10.2017 22:02 13,2 C 12,2 C 11,1 C 74 % 0 lf 1012,7 hPa 0,0 l/m 0 min 0 min 0 W/m 12,6 km/h (3 Bft) 91,30 %
20.10.2017 22:04 13,2 C 12,2 C 11,1 C 74 % 0 lf 1012,7 hPa 0,0 l/m 0 min 0 min 0 W/m 18,8 km/h (3 Bft) 93,62 %
20.10.2017 22:06 13,1 C 12,2 C 10,6 C 74 % 0 lf 1012,6 hPa 0,0 l/m 0 min 0 min 0 W/m 16,7 km/h (3 Bft) 91,49 %
20.10.2017 22:08 13,1 C 12,2 C 10,6 C 74 % 0 lf 1012,7 hPa 0,0 l/m 0 min 0 min 0 W/m 16,7 km/h (3 Bft) 91,49 %
20.10.2017 22:10 13,1 C 12,2 C 10,6 C 74 % 0 lf 1012,7 hPa 0,0 l/m 0 min 0 min 0 W/m 18,8 km/h (3 Bft) 91,49 %
20.10.2017 22:12 13,0 C 12,2 C 10,6 C 74 % 0 lf 1012,7 hPa 0,0 l/m 0 min 0 min 0 W/m 18,8 km/h (3 Bft) 89,36 %
20.10.2017 22:14 13,0 C 12,2 C 10,6 C 74 % 0 lf 1012,8 hPa 0,0 l/m 0 min 0 min 0 W/m 16,7 km/h (3 Bft) 89,13 %
20.10.2017 22:16 12,9 C 12,2 C 10,6 C 75 % 0 lf 1012,7 hPa 0,0 l/m 0 min 0 min 0 W/m 14,6 km/h (3 Bft) 89,36 %
20.10.2017 22:18 12,9 C 12,2 C 10,6 C 75 % 0 lf 1012,8 hPa 0,0 l/m 0 min 0 min 0 W/m 16,7 km/h (3 Bft) 87,23 %
20.10.2017 22:20 12,9 C 12,2 C 10,6 C 75 % 0 lf 1012,8 hPa 0,0 l/m 0 min 0 min 0 W/m 27,2 km/h (4 Bft) 91,49 %
20.10.2017 22:22 12,8 C 12,2 C 10,6 C 75 % 0 lf 1012,8 hPa 0,0 l/m 0 min 0 min 0 W/m 14,6 km/h (3 Bft) 93,62 %
20.10.2017 22:24 12,8 C 12,2 C 10,6 C 75 % 0 lf 1012,8 hPa 0,0 l/m 0 min 0 min 0 W/m 18,8 km/h (3 Bft) 89,13 %
20.10.2017 22:26 12,8 C 12,2 C 10,6 C 75 % 0 lf 1012,7 hPa 0,0 l/m 0 min 0 min 0 W/m 14,6 km/h (3 Bft) 93,62 %
20.10.2017 22:28 12,7 C 12,2 C 10,0 C 75 % 0 lf 1012,7 hPa 0,0 l/m 0 min 0 min 0 W/m 12,6 km/h (3 Bft) 93,62 %
20.10.2017 22:30 12,7 C 11,7 C 10,0 C 75 % 0 lf 1012,7 hPa 0,0 l/m 0 min 0 min 0 W/m 10,5 km/h (2 Bft) 91,49 %
20.10.2017 22:32 12,7 C 11,7 C 10,0 C 75 % 0 lf 1012,8 hPa 0,0 l/m 0 min 0 min 0 W/m 14,6 km/h (3 Bft) 91,49 %
20.10.2017 22:34 12,6 C 11,7 C 10,0 C 75 % 0 lf 1012,8 hPa 0,0 l/m 0 min 0 min 0 W/m 14,6 km/h (3 Bft) 91,49 %
20.10.2017 22:36 12,6 C 11,7 C 10,0 C 75 % 0 lf 1012,7 hPa 0,0 l/m 0 min 0 min 0 W/m 14,6 km/h (3 Bft) 95,65 %
20.10.2017 22:38 12,6 C 11,7 C 10,0 C 76 % 0 lf 1012,7 hPa 0,0 l/m 0 min 0 min 0 W/m 18,8 km/h (3 Bft) 93,62 %
20.10.2017 22:40 12,5 C 11,7 C 10,0 C 76 % 0 lf 1012,7 hPa 0,0 l/m 0 min 0 min 0 W/m 16,7 km/h (3 Bft) 89,36 %
20.10.2017 22:42 12,5 C 11,7 C 10,0 C 76 % 0 lf 1012,7 hPa 0,0 l/m 0 min 0 min 0 W/m 12,6 km/h (3 Bft) 97,87 %
20.10.2017 22:44 12,4 C 11,7 C 10,0 C 76 % 0 lf 1012,7 hPa 0,0 l/m 0 min 0 min 0 W/m 10,5 km/h (2 Bft) 95,74 %
20.10.2017 22:46 12,4 C 11,7 C 10,0 C 76 % 0 lf 1012,7 hPa 0,0 l/m 0 min 0 min 0 W/m 12,6 km/h (3 Bft) 93,62 %
20.10.2017 22:48 12,4 C 11,7 C 10,0 C 76 % 0 lf 1012,6 hPa 0,0 l/m 0 min 0 min 0 W/m 14,6 km/h (3 Bft) 95,65 %
20.10.2017 22:50 12,3 C 11,7 C 10,0 C 76 % 0 lf 1012,7 hPa 0,0 l/m 0 min 0 min 0 W/m 10,5 km/h (2 Bft) 87,23 %
20.10.2017 22:52 12,3 C 11,7 C 10,0 C 76 % 0 lf 1012,7 hPa 0,0 l/m 0 min 0 min 0 W/m 14,6 km/h (3 Bft) 93,62 %
20.10.2017 22:54 12,3 C 11,1 C 9,4 C 76 % 0 lf 1012,7 hPa 0,0 l/m 0 min 0 min 0 W/m 10,5 km/h (2 Bft) 95,74 %
20.10.2017 22:56 12,2 C 11,1 C 9,4 C 77 % 0 lf 1012,7 hPa 0,0 l/m 0 min 0 min 0 W/m 12,6 km/h (3 Bft) 91,49 %
20.10.2017 22:58 12,2 C 11,1 C 9,4 C 77 % 0 lf 1012,7 hPa 0,0 l/m 0 min 0 min 0 W/m 10,5 km/h (2 Bft) 91,49 %
20.10.2017 23:00 12,2 C 11,1 C 9,4 C 77 % 0 lf 1012,7 hPa 0,0 l/m 0 min 0 min 0 W/m 14,6 km/h (3 Bft) 91,30 %
20.10.2017 23:02 12,2 C 11,1 C 9,4 C 77 % 0 lf 1012,7 hPa 0,0 l/m 0 min 0 min 0 W/m 12,6 km/h (3 Bft) 93,62 %
20.10.2017 23:04 12,1 C 11,1 C 9,4 C 77 % 0 lf 1012,6 hPa 0,0 l/m 0 min 0 min 0 W/m 10,5 km/h (2 Bft) 91,49 %
20.10.2017 23:06 12,1 C 11,1 C 9,4 C 77 % 0 lf 1012,6 hPa 0,0 l/m 0 min 0 min 0 W/m 10,5 km/h (2 Bft) 89,36 %
20.10.2017 23:08 12,1 C 11,1 C 9,4 C 77 % 0 lf 1012,6 hPa 0,0 l/m 0 min 0 min 0 W/m 10,5 km/h (2 Bft) 95,74 %
20.10.2017 23:10 12,0 C 11,1 C 9,4 C 77 % 0 lf 1012,7 hPa 0,0 l/m 0 min 0 min 0 W/m 12,6 km/h (3 Bft) 95,74 %
20.10.2017 23:12 12,0 C 11,1 C 9,4 C 78 % 0 lf 1012,7 hPa 0,0 l/m 0 min 0 min 0 W/m 10,5 km/h (2 Bft) 91,30 %
20.10.2017 23:14 11,9 C 11,1 C 9,4 C 78 % 0 lf 1012,7 hPa 0,0 l/m 0 min 0 min 0 W/m 14,6 km/h (3 Bft) 93,62 %
20.10.2017 23:16 11,9 C 11,1 C 9,4 C 78 % 0 lf 1012,6 hPa 0,0 l/m 0 min 0 min 0 W/m 10,5 km/h (2 Bft) 91,49 %
20.10.2017 23:18 11,9 C 11,1 C 9,4 C 78 % 0 lf 1012,7 hPa 0,0 l/m 0 min 0 min 0 W/m 6,3 km/h (2 Bft) 93,62 %
20.10.2017 23:20 11,8 C 11,1 C 8,9 C 78 % 0 lf 1012,6 hPa 0,0 l/m 0 min 0 min 0 W/m 12,6 km/h (3 Bft) 95,74 %
20.10.2017 23:22 11,8 C 11,1 C 9,4 C 78 % 0 lf 1012,7 hPa 0,0 l/m 0 min 0 min 0 W/m 14,6 km/h (3 Bft) 93,48 %
20.10.2017 23:24 11,8 C 11,1 C 9,4 C 78 % 0 lf 1012,6 hPa 0,0 l/m 0 min 0 min 0 W/m 12,6 km/h (3 Bft) 89,36 %
20.10.2017 23:26 11,8 C 11,1 C 9,4 C 78 % 0 lf 1012,6 hPa 0,0 l/m 0 min 0 min 0 W/m 14,6 km/h (3 Bft) 95,74 %
20.10.2017 23:28 11,8 C 11,1 C 9,4 C 79 % 0 lf 1012,6 hPa 0,0 l/m 0 min 0 min 0 W/m 8,4 km/h (2 Bft) 93,62 %
20.10.2017 23:30 11,7 C 10,6 C 8,9 C 79 % 0 lf 1012,6 hPa 0,0 l/m 0 min 0 min 0 W/m 10,5 km/h (2 Bft) 93,62 %
20.10.2017 23:32 11,7 C 10,6 C 8,9 C 79 % 0 lf 1012,6 hPa 0,0 l/m 0 min 0 min 0 W/m 12,6 km/h (3 Bft) 95,74 %
20.10.2017 23:34 11,7 C 10,6 C 8,9 C 79 % 0 lf 1012,7 hPa 0,0 l/m 0 min 0 min 0 W/m 12,6 km/h (3 Bft) 95,65 %
20.10.2017 23:36 11,7 C 10,6 C 8,9 C 79 % 0 lf 1012,7 hPa 0,0 l/m 0 min 0 min 0 W/m 10,5 km/h (2 Bft) 95,74 %
20.10.2017 23:38 11,6 C 10,6 C 8,9 C 79 % 0 lf 1012,6 hPa 0,0 l/m 0 min 0 min 0 W/m 8,4 km/h (2 Bft) 95,74 %
20.10.2017 23:40 11,6 C 10,6 C 8,9 C 79 % 0 lf 1012,6 hPa 0,0 l/m 0 min 0 min 0 W/m 8,4 km/h (2 Bft) 97,87 %
20.10.2017 23:42 11,6 C 10,6 C 8,9 C 79 % 0 lf 1012,6 hPa 0,0 l/m 0 min 0 min 0 W/m 10,5 km/h (2 Bft) 95,74 %
20.10.2017 23:44 11,6 C 10,6 C 8,9 C 80 % 0 lf 1012,6 hPa 0,0 l/m 0 min 0 min 0 W/m 8,4 km/h (2 Bft) 97,87 %
20.10.2017 23:46 11,5 C 10,6 C 8,9 C 80 % 0 lf 1012,6 hPa 0,0 l/m 0 min 0 min 0 W/m 8,4 km/h (2 Bft) 95,65 %
20.10.2017 23:48 11,5 C 10,6 C 8,9 C 80 % 0 lf 1012,6 hPa 0,0 l/m 0 min 0 min 0 W/m 8,4 km/h (2 Bft) 97,87 %
20.10.2017 23:50 11,5 C 10,6 C 8,9 C 80 % 0 lf 1012,6 hPa 0,0 l/m 0 min 0 min 0 W/m 10,5 km/h (2 Bft) 93,62 %
20.10.2017 23:52 11,4 C 10,6 C 8,9 C 80 % 0 lf 1012,6 hPa 0,0 l/m 0 min 0 min 0 W/m 6,3 km/h (2 Bft) 97,87 %
20.10.2017 23:54 11,4 C 10,6 C 8,9 C 80 % 0 lf 1012,6 hPa 0,0 l/m 0 min 0 min 0 W/m 8,4 km/h (2 Bft) 95,74 %
20.10.2017 23:56 11,4 C 10,6 C 8,9 C 80 % 0 lf 1012,6 hPa 0,0 l/m 0 min 0 min 0 W/m 8,4 km/h (2 Bft) 100,00 %
20.10.2017 23:58 11,4 C 10,6 C 8,9 C 80 % 0 lf 1012,6 hPa 0,0 l/m 0 min 0 min 0 W/m 10,5 km/h (2 Bft) 100,00 %
_ Min-Zeit 23:52 23:30 23:20 13:58 00:00 08:18 - - - - 03:22 04:05
Minimum _ 11,4 C 10,6 C 8,9 C 71 % 0 lf 1006,2 hPa - - - - 4,2 km/h (1 Bft) 81,82 %
_ Max-Zeit 01:34 11:56 14:32 06:26 01:50 22:14 09:46 12:10 04:05 14:30 15:58 00:00
Maximum _ 16,4 C 22,2 C 16,7 C 96 % 15 lf 1012,8 hPa 0,6 l/m 4 min 5 min 624 W/m 52,3 km/h
W-SW (7 Bft)
100,00 %
Durchschnitt _ 14,6 C 14,6 C 12,8 C 83 % 3 lf 1009,1 hPa #6,0 l/m #3:30 h #4:18 h 162 W/m 21,7 km/h (4 Bft) 96,05 %
© 2017 W. Hausmann